Wetterdaten: Mittwoch, 08.12.2021
Datum Zeit Temp. Aussen Temp. o. S. Temp +5cm Feuchte Auss Luftdruck Regen Sonnenschein Regendauer Solar Windben Empfang
08.12.2021 00:00 4,2 C 3,9 C 0,6 C 88 % 995,0 hPa 0,0 l/m 0 min 0 min 0 W/m 35,4 km/h (5 Bft) 100,00 %
08.12.2021 00:02 4,2 C 3,9 C 0,6 C 88 % 994,9 hPa 0,0 l/m 0 min 0 min 0 W/m 29,0 km/h (5 Bft) 94,59 %
08.12.2021 00:04 4,2 C 3,9 C 0,6 C 88 % 994,9 hPa 0,0 l/m 0 min 2 min 0 W/m 29,0 km/h (5 Bft) 97,87 %
08.12.2021 00:07 4,2 C 3,9 C 0,6 C 88 % 994,9 hPa 0,0 l/m 0 min 0 min 0 W/m 32,2 km/h (5 Bft) 98,78 %
08.12.2021 00:08 4,3 C 3,9 C 0,6 C 88 % 994,9 hPa 0,0 l/m 0 min 0 min 0 W/m 38,6 km/h (5 Bft) 91,67 %
08.12.2021 00:10 4,3 C 3,9 C 0,6 C 88 % 994,9 hPa 0,0 l/m 0 min 0 min 0 W/m 22,5 km/h (4 Bft) 97,87 %
08.12.2021 00:12 4,3 C 3,9 C 0,6 C 88 % 994,9 hPa 0,0 l/m 0 min 0 min 0 W/m 25,7 km/h (4 Bft) 97,83 %
08.12.2021 00:14 4,3 C 3,9 C 0,6 C 88 % 995,0 hPa 0,0 l/m 0 min 2 min 0 W/m 35,4 km/h (5 Bft) 97,87 %
08.12.2021 00:16 4,3 C 3,9 C 0,6 C 88 % 994,9 hPa 0,0 l/m 0 min 2 min 0 W/m 29,0 km/h (5 Bft) 97,87 %
08.12.2021 00:18 4,3 C 3,9 C 0,6 C 87 % 995,0 hPa 0,0 l/m 0 min 2 min 0 W/m 32,2 km/h (5 Bft) 97,87 %
08.12.2021 00:20 4,3 C 3,9 C 0,6 C 87 % 995,0 hPa 0,0 l/m 0 min 2 min 0 W/m 29,0 km/h (5 Bft) 97,87 %
08.12.2021 00:22 4,3 C 3,9 C 0,6 C 87 % 995,0 hPa 0,0 l/m 0 min 2 min 0 W/m 32,2 km/h (5 Bft) 95,74 %
08.12.2021 00:24 4,3 C 3,9 C 0,6 C 87 % 995,0 hPa 0,0 l/m 0 min 2 min 0 W/m 35,4 km/h (5 Bft) 97,83 %
08.12.2021 00:26 4,3 C 3,9 C 0,6 C 87 % 995,0 hPa 0,0 l/m 0 min 0 min 0 W/m 25,7 km/h (4 Bft) 97,87 %
08.12.2021 00:28 4,3 C 3,9 C 0,6 C 87 % 995,0 hPa 0,0 l/m 0 min 0 min 0 W/m 38,6 km/h (5 Bft) 97,87 %
08.12.2021 00:30 4,3 C 3,9 C 0,6 C 87 % 994,9 hPa 0,0 l/m 0 min 0 min 0 W/m 29,0 km/h (5 Bft) 97,87 %
08.12.2021 00:32 4,4 C 3,9 C 0,6 C 87 % 994,9 hPa 0,0 l/m 0 min 0 min 0 W/m 35,4 km/h (5 Bft) 95,74 %
08.12.2021 00:34 4,3 C 3,9 C 0,6 C 87 % 994,9 hPa 0,0 l/m 0 min 0 min 0 W/m 38,6 km/h (5 Bft) 97,87 %
08.12.2021 00:36 4,4 C 3,9 C 0,6 C 87 % 994,9 hPa 0,0 l/m 0 min 0 min 0 W/m 29,0 km/h (5 Bft) 97,83 %
08.12.2021 00:38 4,4 C 3,9 C 0,6 C 87 % 994,9 hPa 0,0 l/m 0 min 0 min 0 W/m 25,7 km/h (4 Bft) 100,00 %
08.12.2021 00:40 4,3 C 3,9 C 0,6 C 87 % 994,8 hPa 0,0 l/m 0 min 2 min 0 W/m 29,0 km/h (5 Bft) 97,87 %
08.12.2021 00:42 4,3 C 3,9 C 0,6 C 87 % 994,8 hPa 0,0 l/m 0 min 2 min 0 W/m 35,4 km/h (5 Bft) 100,00 %
08.12.2021 00:44 4,3 C 3,9 C 0,6 C 87 % 994,7 hPa 0,0 l/m 0 min 0 min 0 W/m 22,5 km/h (4 Bft) 97,87 %
08.12.2021 00:46 4,3 C 3,9 C 0,6 C 88 % 994,7 hPa 0,2 l/m 0 min 2 min 0 W/m 35,4 km/h (5 Bft) 97,87 %
08.12.2021 00:48 4,3 C 3,9 C 0,6 C 88 % 994,6 hPa 0,0 l/m 0 min 2 min 0 W/m 41,8 km/h (6 Bft) 97,83 %
08.12.2021 00:50 4,3 C 3,9 C 0,6 C 88 % 994,6 hPa 0,0 l/m 0 min 2 min 0 W/m 38,6 km/h (5 Bft) 93,62 %
08.12.2021 00:52 4,3 C 3,9 C 0,6 C 88 % 994,5 hPa 0,0 l/m 0 min 2 min 0 W/m 29,0 km/h (5 Bft) 95,74 %
08.12.2021 00:54 4,3 C 3,9 C 0,6 C 88 % 994,5 hPa 0,0 l/m 0 min 2 min 0 W/m 48,3 km/h (6 Bft) 95,74 %
08.12.2021 00:56 4,3 C 3,9 C 0,6 C 88 % 994,5 hPa 0,0 l/m 0 min 2 min 0 W/m 41,8 km/h (6 Bft) 95,74 %
08.12.2021 00:58 4,3 C 3,9 C 0,6 C 88 % 994,5 hPa 0,0 l/m 0 min 2 min 0 W/m 29,0 km/h (5 Bft) 95,65 %
08.12.2021 01:00 4,3 C 3,9 C 0,6 C 88 % 994,4 hPa 0,0 l/m 0 min 2 min 0 W/m 29,0 km/h (5 Bft) 95,74 %
08.12.2021 01:02 4,3 C 3,9 C 0,6 C 88 % 994,4 hPa 0,0 l/m 0 min 2 min 0 W/m 32,2 km/h (5 Bft) 93,62 %
08.12.2021 01:04 4,3 C 3,9 C 0,6 C 88 % 994,4 hPa 0,0 l/m 0 min 2 min 0 W/m 45,1 km/h (6 Bft) 95,74 %
08.12.2021 01:06 4,3 C 3,9 C 0,6 C 88 % 994,3 hPa 0,0 l/m 0 min 2 min 0 W/m 29,0 km/h (5 Bft) 93,62 %
08.12.2021 01:08 4,3 C 3,9 C 0,6 C 89 % 994,4 hPa 0,0 l/m 0 min 2 min 0 W/m 25,7 km/h (4 Bft) 95,74 %
08.12.2021 01:10 4,2 C 3,9 C 0,6 C 89 % 994,3 hPa 0,0 l/m 0 min 2 min 0 W/m 29,0 km/h (5 Bft) 95,65 %
08.12.2021 01:12 4,2 C 3,9 C 0,6 C 89 % 994,4 hPa 0,0 l/m 0 min 2 min 0 W/m 32,2 km/h (5 Bft) 95,74 %
08.12.2021 01:14 4,2 C 3,9 C 0,6 C 89 % 994,3 hPa 0,0 l/m 0 min 2 min 0 W/m 29,0 km/h (5 Bft) 97,87 %
08.12.2021 01:16 4,2 C 3,9 C 0,6 C 89 % 994,3 hPa 0,0 l/m 0 min 2 min 0 W/m 32,2 km/h (5 Bft) 97,87 %
08.12.2021 01:18 4,2 C 3,9 C 0,6 C 89 % 994,3 hPa 0,0 l/m 0 min 2 min 0 W/m 35,4 km/h (5 Bft) 97,87 %
08.12.2021 01:20 4,2 C 3,9 C 0,6 C 89 % 994,3 hPa 0,0 l/m 0 min 2 min 0 W/m 41,8 km/h (6 Bft) 95,74 %
08.12.2021 01:22 4,2 C 3,9 C 0,6 C 89 % 994,2 hPa 0,0 l/m 0 min 2 min 0 W/m 32,2 km/h (5 Bft) 97,83 %
08.12.2021 01:24 4,2 C 3,9 C 0,6 C 89 % 994,2 hPa 0,0 l/m 0 min 2 min 0 W/m 38,6 km/h (5 Bft) 97,87 %
08.12.2021 01:26 4,2 C 3,9 C 0,6 C 89 % 994,2 hPa 0,0 l/m 0 min 2 min 0 W/m 29,0 km/h (5 Bft) 97,87 %
08.12.2021 01:28 4,2 C 3,9 C 0,6 C 89 % 994,2 hPa 0,0 l/m 0 min 2 min 0 W/m 32,2 km/h (5 Bft) 97,87 %
08.12.2021 01:30 4,2 C 3,9 C 0,6 C 89 % 994,2 hPa 0,0 l/m 0 min 0 min 0 W/m 29,0 km/h (5 Bft) 93,62 %
08.12.2021 01:32 4,2 C 3,9 C 0,6 C 89 % 994,2 hPa 0,2 l/m 0 min 2 min 0 W/m 38,6 km/h (5 Bft) 97,87 %
08.12.2021 01:34 4,2 C 3,9 C 0,6 C 89 % 994,1 hPa 0,0 l/m 0 min 2 min 0 W/m 25,7 km/h (4 Bft) 97,83 %
08.12.2021 01:36 4,2 C 3,9 C 0,6 C 89 % 994,2 hPa 0,0 l/m 0 min 2 min 0 W/m 38,6 km/h (5 Bft) 97,87 %
08.12.2021 01:38 4,1 C 3,9 C 0,6 C 89 % 994,2 hPa 0,0 l/m 0 min 2 min 0 W/m 35,4 km/h (5 Bft) 95,74 %
08.12.2021 01:40 4,2 C 3,9 C 0,6 C 89 % 994,2 hPa 0,0 l/m 0 min 2 min 0 W/m 32,2 km/h (5 Bft) 97,87 %
08.12.2021 01:42 4,1 C 3,9 C 0,6 C 89 % 994,2 hPa 0,0 l/m 0 min 2 min 0 W/m 35,4 km/h (5 Bft) 95,74 %
08.12.2021 01:44 4,1 C 3,9 C 0,6 C 90 % 994,2 hPa 0,0 l/m 0 min 2 min 0 W/m 32,2 km/h (5 Bft) 97,87 %
08.12.2021 01:46 4,1 C 3,9 C 0,6 C 90 % 994,2 hPa 0,0 l/m 0 min 2 min 0 W/m 38,6 km/h (5 Bft) 97,83 %
08.12.2021 01:48 4,1 C 3,9 C 0,6 C 90 % 994,3 hPa 0,0 l/m 0 min 2 min 0 W/m 32,2 km/h (5 Bft) 97,87 %
08.12.2021 01:50 4,1 C 3,9 C 0,6 C 90 % 994,1 hPa 0,0 l/m 0 min 2 min 0 W/m 32,2 km/h (5 Bft) 100,00 %
08.12.2021 01:52 4,1 C 3,9 C 0,6 C 90 % 994,1 hPa 0,0 l/m 0 min 2 min 0 W/m 29,0 km/h (5 Bft) 97,87 %
08.12.2021 01:54 4,1 C 3,9 C 0,6 C 90 % 994,2 hPa 0,0 l/m 0 min 0 min 0 W/m 25,7 km/h (4 Bft) 100,00 %
08.12.2021 01:56 4,1 C 3,9 C 0,6 C 90 % 994,2 hPa 0,0 l/m 0 min 0 min 0 W/m 29,0 km/h (5 Bft) 93,62 %
08.12.2021 01:58 4,1 C 3,9 C 0,6 C 90 % 994,2 hPa 0,0 l/m 0 min 0 min 0 W/m 25,7 km/h (4 Bft) 100,00 %
08.12.2021 02:00 4,1 C 3,9 C 0,6 C 90 % 994,3 hPa 0,0 l/m 0 min 0 min 0 W/m 35,4 km/h (5 Bft) 100,00 %
08.12.2021 02:02 4,1 C 3,9 C 0,6 C 90 % 994,2 hPa 0,0 l/m 0 min 0 min 0 W/m 32,2 km/h (5 Bft) 100,00 %
08.12.2021 02:04 4,1 C 3,9 C 0,6 C 90 % 994,4 hPa 0,0 l/m 0 min 0 min 0 W/m 38,6 km/h (5 Bft) 97,56 %
08.12.2021 02:06 4,2 C 3,9 C 0,6 C 90 % 994,4 hPa 0,0 l/m 0 min 0 min 0 W/m 22,5 km/h (4 Bft) 97,87 %
08.12.2021 02:08 4,2 C 3,9 C 0,6 C 90 % 994,3 hPa 0,0 l/m 0 min 0 min 0 W/m 19,3 km/h (3 Bft) 100,00 %
08.12.2021 02:10 4,2 C 3,9 C 0,6 C 90 % 994,3 hPa 0,0 l/m 0 min 0 min 0 W/m 32,2 km/h (5 Bft) 100,00 %
08.12.2021 02:12 4,2 C 3,9 C 0,6 C 90 % 994,2 hPa 0,0 l/m 0 min 0 min 0 W/m 29,0 km/h (5 Bft) 100,00 %
08.12.2021 02:14 4,2 C 3,9 C 0,6 C 91 % 994,3 hPa 0,0 l/m 0 min 0 min 0 W/m 32,2 km/h (5 Bft) 97,83 %
08.12.2021 02:16 4,2 C 3,9 C 0,6 C 91 % 994,3 hPa 0,0 l/m 0 min 0 min 0 W/m 35,4 km/h (5 Bft) 97,87 %
08.12.2021 02:18 4,2 C 3,9 C 0,6 C 91 % 994,2 hPa 0,0 l/m 0 min 0 min 0 W/m 22,5 km/h (4 Bft) 100,00 %
08.12.2021 02:20 4,2 C 3,9 C 1,1 C 91 % 994,3 hPa 0,0 l/m 0 min 0 min 0 W/m 16,1 km/h (3 Bft) 95,74 %
08.12.2021 02:22 4,3 C 3,9 C 1,1 C 91 % 994,3 hPa 0,0 l/m 0 min 0 min 0 W/m 22,5 km/h (4 Bft) 95,74 %
08.12.2021 02:24 4,3 C 3,9 C 1,1 C 91 % 994,4 hPa 0,0 l/m 0 min 0 min 0 W/m 22,5 km/h (4 Bft) 97,87 %
08.12.2021 02:26 4,3 C 3,9 C 1,1 C 91 % 994,3 hPa 0,0 l/m 0 min 0 min 0 W/m 16,1 km/h (3 Bft) 97,83 %
08.12.2021 02:28 4,3 C 3,9 C 1,1 C 91 % 994,4 hPa 0,0 l/m 0 min 0 min 0 W/m 22,5 km/h (4 Bft) 97,87 %
08.12.2021 02:30 4,3 C 3,9 C 1,1 C 91 % 994,3 hPa 0,0 l/m 0 min 0 min 0 W/m 16,1 km/h (3 Bft) 97,87 %
08.12.2021 02:32 4,3 C 3,9 C 1,1 C 91 % 994,3 hPa 0,0 l/m 0 min 0 min 0 W/m 29,0 km/h (5 Bft) 95,74 %
08.12.2021 02:34 4,4 C 3,9 C 1,1 C 91 % 994,3 hPa 0,0 l/m 0 min 0 min 0 W/m 29,0 km/h (5 Bft) 97,87 %
08.12.2021 02:36 4,4 C 3,9 C 1,1 C 91 % 994,4 hPa 0,0 l/m 0 min 0 min 0 W/m 16,1 km/h (3 Bft) 95,74 %
08.12.2021 02:38 4,4 C 3,9 C 1,1 C 91 % 994,4 hPa 0,0 l/m 0 min 0 min 0 W/m 22,5 km/h (4 Bft) 95,65 %
08.12.2021 02:40 4,4 C 4,4 C 1,1 C 91 % 994,4 hPa 0,0 l/m 0 min 0 min 0 W/m 25,7 km/h (4 Bft) 95,74 %
08.12.2021 02:42 4,5 C 4,4 C 1,1 C 91 % 994,4 hPa 0,0 l/m 0 min 0 min 0 W/m 19,3 km/h (3 Bft) 95,74 %
08.12.2021 02:44 4,5 C 4,4 C 1,1 C 91 % 994,4 hPa 0,0 l/m 0 min 0 min 0 W/m 19,3 km/h (3 Bft) 95,74 %
08.12.2021 02:46 4,6 C 4,4 C 1,1 C 91 % 994,4 hPa 0,0 l/m 0 min 0 min 0 W/m 19,3 km/h (3 Bft) 95,74 %
08.12.2021 02:48 4,6 C 4,4 C 1,1 C 91 % 994,4 hPa 0,0 l/m 0 min 0 min 0 W/m 16,1 km/h (3 Bft) 95,74 %
08.12.2021 02:50 4,6 C 4,4 C 1,1 C 92 % 994,5 hPa 0,0 l/m 0 min 0 min 0 W/m 16,1 km/h (3 Bft) 95,65 %
08.12.2021 02:52 4,7 C 4,4 C 1,1 C 92 % 994,5 hPa 0,0 l/m 0 min 0 min 0 W/m 29,0 km/h (5 Bft) 93,62 %
08.12.2021 02:54 4,7 C 4,4 C 1,7 C 92 % 994,5 hPa 0,0 l/m 0 min 0 min 0 W/m 22,5 km/h (4 Bft) 95,74 %
08.12.2021 02:56 4,7 C 4,4 C 1,7 C 92 % 994,4 hPa 0,0 l/m 0 min 0 min 0 W/m 22,5 km/h (4 Bft) 95,74 %
08.12.2021 02:58 4,8 C 4,4 C 1,7 C 92 % 994,4 hPa 0,0 l/m 0 min 0 min 0 W/m 22,5 km/h (4 Bft) 95,74 %
08.12.2021 03:00 4,8 C 4,4 C 1,7 C 92 % 994,4 hPa 0,0 l/m 0 min 0 min 0 W/m 19,3 km/h (3 Bft) 97,87 %
08.12.2021 03:02 4,8 C 4,4 C 1,7 C 92 % 994,3 hPa 0,0 l/m 0 min 0 min 0 W/m 19,3 km/h (3 Bft) 97,83 %
08.12.2021 03:04 4,9 C 4,4 C 1,7 C 92 % 994,3 hPa 0,0 l/m 0 min 0 min 0 W/m 22,5 km/h (4 Bft) 95,74 %
08.12.2021 03:06 4,9 C 4,4 C 1,7 C 92 % 994,4 hPa 0,0 l/m 0 min 0 min 0 W/m 19,3 km/h (3 Bft) 97,87 %
08.12.2021 03:08 4,9 C 4,4 C 1,7 C 92 % 994,5 hPa 0,0 l/m 0 min 0 min 0 W/m 19,3 km/h (3 Bft) 100,00 %
08.12.2021 03:10 4,9 C 4,4 C 1,7 C 92 % 994,5 hPa 0,0 l/m 0 min 0 min 0 W/m 19,3 km/h (3 Bft) 100,00 %
08.12.2021 03:12 4,9 C 4,4 C 1,7 C 92 % 994,5 hPa 0,0 l/m 0 min 0 min 0 W/m 16,1 km/h (3 Bft) 100,00 %
08.12.2021 03:14 4,9 C 4,4 C 1,7 C 92 % 994,5 hPa 0,0 l/m 0 min 0 min 0 W/m 22,5 km/h (4 Bft) 100,00 %
08.12.2021 03:16 5,0 C 4,4 C 1,7 C 92 % 994,5 hPa 0,0 l/m 0 min 0 min 0 W/m 22,5 km/h (4 Bft) 97,87 %
08.12.2021 03:18 5,0 C 5,0 C 1,7 C 92 % 994,6 hPa 0,0 l/m 0 min 0 min 0 W/m 22,5 km/h (4 Bft) 97,87 %
08.12.2021 03:20 5,0 C 5,0 C 1,7 C 92 % 994,5 hPa 0,0 l/m 0 min 0 min 0 W/m 16,1 km/h (3 Bft) 100,00 %
08.12.2021 03:22 5,0 C 4,4 C 1,7 C 92 % 994,5 hPa 0,0 l/m 0 min 0 min 0 W/m 12,9 km/h (3 Bft) 100,00 %
08.12.2021 03:24 5,1 C 5,0 C 1,7 C 92 % 994,5 hPa 0,0 l/m 0 min 0 min 0 W/m 19,3 km/h (3 Bft) 100,00 %
08.12.2021 03:26 5,1 C 5,0 C 1,7 C 92 % 994,5 hPa 0,0 l/m 0 min 0 min 0 W/m 22,5 km/h (4 Bft) 100,00 %
08.12.2021 03:28 5,1 C 5,0 C 1,7 C 92 % 994,6 hPa 0,0 l/m 0 min 0 min 0 W/m 19,3 km/h (3 Bft) 97,87 %
08.12.2021 03:30 5,1 C 5,0 C 1,7 C 92 % 994,5 hPa 0,0 l/m 0 min 0 min 0 W/m 16,1 km/h (3 Bft) 100,00 %
08.12.2021 03:32 5,1 C 5,0 C 1,7 C 92 % 994,6 hPa 0,0 l/m 0 min 0 min 0 W/m 16,1 km/h (3 Bft) 100,00 %
08.12.2021 03:34 5,1 C 5,0 C 1,7 C 91 % 994,7 hPa 0,0 l/m 0 min 0 min 0 W/m 32,2 km/h (5 Bft) 100,00 %
08.12.2021 03:36 5,1 C 5,0 C 1,7 C 91 % 994,7 hPa 0,0 l/m 0 min 0 min 0 W/m 19,3 km/h (3 Bft) 100,00 %
08.12.2021 03:38 5,1 C 5,0 C 1,7 C 91 % 994,7 hPa 0,0 l/m 0 min 0 min 0 W/m 22,5 km/h (4 Bft) 97,87 %
08.12.2021 03:40 5,1 C 5,0 C 1,7 C 91 % 994,7 hPa 0,0 l/m 0 min 0 min 0 W/m 19,3 km/h (3 Bft) 100,00 %
08.12.2021 03:42 5,2 C 5,0 C 1,7 C 92 % 994,7 hPa 0,0 l/m 0 min 0 min 0 W/m 16,1 km/h (3 Bft) 100,00 %
08.12.2021 03:44 5,2 C 5,0 C 1,7 C 92 % 994,8 hPa 0,0 l/m 0 min 0 min 0 W/m 25,7 km/h (4 Bft) 100,00 %
08.12.2021 03:46 5,2 C 5,0 C 1,7 C 92 % 994,8 hPa 0,0 l/m 0 min 0 min 0 W/m 16,1 km/h (3 Bft) 100,00 %
08.12.2021 03:48 5,2 C 5,0 C 1,7 C 92 % 994,8 hPa 0,0 l/m 0 min 0 min 0 W/m 19,3 km/h (3 Bft) 100,00 %
08.12.2021 03:50 5,2 C 5,0 C 1,7 C 92 % 994,8 hPa 0,0 l/m 0 min 0 min 0 W/m 16,1 km/h (3 Bft) 100,00 %
08.12.2021 03:52 5,2 C 5,0 C 1,7 C 91 % 994,8 hPa 0,0 l/m 0 min 0 min 0 W/m 16,1 km/h (3 Bft) 100,00 %
08.12.2021 03:54 5,3 C 5,0 C 1,7 C 91 % 994,9 hPa 0,0 l/m 0 min 0 min 0 W/m 22,5 km/h (4 Bft) 97,87 %
08.12.2021 03:56 5,3 C 5,0 C 1,7 C 91 % 994,9 hPa 0,0 l/m 0 min 0 min 0 W/m 16,1 km/h (3 Bft) 97,87 %
08.12.2021 03:58 5,3 C 5,0 C 1,7 C 91 % 994,9 hPa 0,0 l/m 0 min 0 min 0 W/m 16,1 km/h (3 Bft) 95,74 %
08.12.2021 04:00 5,3 C 5,0 C 2,2 C 91 % 994,9 hPa 0,0 l/m 0 min 0 min 0 W/m 16,1 km/h (3 Bft) 97,83 %
08.12.2021 04:02 5,3 C 5,0 C 2,2 C 91 % 994,9 hPa 0,0 l/m 0 min 0 min 0 W/m 19,3 km/h (3 Bft) 100,00 %
08.12.2021 04:04 5,3 C 5,0 C 2,2 C 91 % 995,0 hPa 0,0 l/m 0 min 0 min 0 W/m 12,9 km/h (3 Bft) 93,62 %
08.12.2021 04:06 5,3 C 5,0 C 2,2 C 91 % 995,0 hPa 0,0 l/m 0 min 0 min 0 W/m 12,9 km/h (3 Bft) 97,87 %
08.12.2021 04:08 5,3 C 5,0 C 2,2 C 91 % 995,0 hPa 0,0 l/m 0 min 0 min 0 W/m 12,9 km/h (3 Bft) 95,74 %
08.12.2021 04:10 5,3 C 5,0 C 2,2 C 91 % 995,0 hPa 0,0 l/m 0 min 0 min 0 W/m 12,9 km/h (3 Bft) 93,62 %
08.12.2021 04:12 5,3 C 5,0 C 2,2 C 91 % 995,0 hPa 0,0 l/m 0 min 0 min 0 W/m 16,1 km/h (3 Bft) 95,65 %
08.12.2021 04:14 5,3 C 5,0 C 2,2 C 91 % 995,1 hPa 0,0 l/m 0 min 0 min 0 W/m 12,9 km/h (3 Bft) 100,00 %
08.12.2021 04:16 5,3 C 5,0 C 2,2 C 91 % 995,0 hPa 0,0 l/m 0 min 0 min 0 W/m 22,5 km/h (4 Bft) 95,74 %
08.12.2021 04:18 5,3 C 5,0 C 2,2 C 91 % 995,1 hPa 0,0 l/m 0 min 0 min 0 W/m 9,7 km/h (2 Bft) 97,87 %
08.12.2021 04:20 5,3 C 5,0 C 2,2 C 91 % 995,1 hPa 0,0 l/m 0 min 0 min 0 W/m 16,1 km/h (3 Bft) 97,87 %
08.12.2021 04:22 5,3 C 5,0 C 2,2 C 91 % 995,0 hPa 0,0 l/m 0 min 0 min 0 W/m 12,9 km/h (3 Bft) 97,83 %
08.12.2021 04:24 5,3 C 5,0 C 2,2 C 91 % 995,1 hPa 0,0 l/m 0 min 0 min 0 W/m 19,3 km/h (3 Bft) 97,87 %
08.12.2021 04:26 5,3 C 5,0 C 2,2 C 91 % 995,1 hPa 0,0 l/m 0 min 0 min 0 W/m 16,1 km/h (3 Bft) 95,74 %
08.12.2021 04:28 5,3 C 5,0 C 2,2 C 91 % 995,2 hPa 0,0 l/m 0 min 0 min 0 W/m 9,7 km/h (2 Bft) 97,87 %
08.12.2021 04:30 5,3 C 5,0 C 2,2 C 91 % 995,2 hPa 0,0 l/m 0 min 0 min 0 W/m 12,9 km/h (3 Bft) 95,74 %
08.12.2021 04:32 5,3 C 5,0 C 2,2 C 91 % 995,2 hPa 0,0 l/m 0 min 0 min 0 W/m 9,7 km/h (2 Bft) 95,74 %
08.12.2021 04:34 5,3 C 5,0 C 2,2 C 91 % 995,2 hPa 0,0 l/m 0 min 0 min 0 W/m 9,7 km/h (2 Bft) 93,48 %
08.12.2021 04:36 5,3 C 5,0 C 1,7 C 91 % 995,2 hPa 0,0 l/m 0 min 0 min 0 W/m 9,7 km/h (2 Bft) 91,49 %
08.12.2021 04:38 5,3 C 5,0 C 1,7 C 91 % 995,3 hPa 0,0 l/m 0 min 0 min 0 W/m 12,9 km/h (3 Bft) 91,49 %
08.12.2021 04:40 5,3 C 5,0 C 1,7 C 91 % 995,3 hPa 0,0 l/m 0 min 0 min 0 W/m 12,9 km/h (3 Bft) 95,74 %
08.12.2021 04:42 5,3 C 4,4 C 1,7 C 91 % 995,3 hPa 0,0 l/m 0 min 0 min 0 W/m 19,3 km/h (3 Bft) 93,62 %
08.12.2021 04:44 5,3 C 5,0 C 1,7 C 92 % 995,3 hPa 0,0 l/m 0 min 0 min 0 W/m 16,1 km/h (3 Bft) 95,74 %
08.12.2021 04:46 5,3 C 4,4 C 1,7 C 92 % 995,4 hPa 0,0 l/m 0 min 0 min 0 W/m 9,7 km/h (2 Bft) 95,65 %
08.12.2021 04:48 5,3 C 4,4 C 1,7 C 92 % 995,3 hPa 0,0 l/m 0 min 0 min 0 W/m 16,1 km/h (3 Bft) 91,49 %
08.12.2021 04:50 5,2 C 4,4 C 1,7 C 92 % 995,3 hPa 0,0 l/m 0 min 0 min 0 W/m 16,1 km/h (3 Bft) 95,74 %
08.12.2021 04:52 5,2 C 4,4 C 1,7 C 92 % 995,3 hPa 0,0 l/m 0 min 0 min 0 W/m 9,7 km/h (2 Bft) 95,74 %
08.12.2021 04:54 5,2 C 4,4 C 1,7 C 92 % 995,3 hPa 0,0 l/m 0 min 0 min 0 W/m 12,9 km/h (3 Bft) 95,74 %
08.12.2021 04:56 5,2 C 4,4 C 1,7 C 92 % 995,4 hPa 0,0 l/m 0 min 0 min 0 W/m 16,1 km/h (3 Bft) 93,62 %
08.12.2021 04:58 5,2 C 4,4 C 1,7 C 92 % 995,4 hPa 0,0 l/m 0 min 0 min 0 W/m 12,9 km/h (3 Bft) 95,65 %
08.12.2021 05:00 5,2 C 4,4 C 1,7 C 92 % 995,4 hPa 0,0 l/m 0 min 0 min 0 W/m 12,9 km/h (3 Bft) 95,74 %
08.12.2021 05:02 5,1 C 4,4 C 1,7 C 92 % 995,4 hPa 0,0 l/m 0 min 0 min 0 W/m 16,1 km/h (3 Bft) 95,74 %
08.12.2021 05:04 5,1 C 4,4 C 2,2 C 92 % 995,4 hPa 0,0 l/m 0 min 0 min 0 W/m 12,9 km/h (3 Bft) 97,87 %
08.12.2021 05:06 5,1 C 4,4 C 2,2 C 92 % 995,3 hPa 0,0 l/m 0 min 0 min 0 W/m 12,9 km/h (3 Bft) 93,62 %
08.12.2021 05:08 5,1 C 4,4 C 2,2 C 92 % 995,4 hPa 0,0 l/m 0 min 0 min 0 W/m 16,1 km/h (3 Bft) 97,83 %
08.12.2021 05:10 5,1 C 4,4 C 2,2 C 92 % 995,3 hPa 0,0 l/m 0 min 0 min 0 W/m 12,9 km/h (3 Bft) 93,62 %
08.12.2021 05:12 5,1 C 4,4 C 2,2 C 92 % 995,3 hPa 0,0 l/m 0 min 0 min 0 W/m 12,9 km/h (3 Bft) 97,87 %
08.12.2021 05:14 5,1 C 4,4 C 2,2 C 92 % 995,3 hPa 0,0 l/m 0 min 0 min 0 W/m 12,9 km/h (3 Bft) 97,87 %
08.12.2021 05:16 5,0 C 4,4 C 2,2 C 92 % 995,3 hPa 0,0 l/m 0 min 0 min 0 W/m 16,1 km/h (3 Bft) 98,11 %
08.12.2021 05:18 5,0 C 4,4 C 2,2 C 92 % 995,3 hPa 0,0 l/m 0 min 0 min 0 W/m 12,9 km/h (3 Bft) 97,87 %
08.12.2021 05:20 5,0 C 4,4 C 2,2 C 92 % 995,3 hPa 0,0 l/m 0 min 0 min 0 W/m 16,1 km/h (3 Bft) 97,87 %
08.12.2021 05:22 5,0 C 4,4 C 2,2 C 92 % 995,3 hPa 0,0 l/m 0 min 0 min 0 W/m 12,9 km/h (3 Bft) 95,74 %
08.12.2021 05:24 5,0 C 4,4 C 2,2 C 92 % 995,4 hPa 0,0 l/m 0 min 0 min 0 W/m 16,1 km/h (3 Bft) 97,87 %
08.12.2021 05:26 5,0 C 4,4 C 2,2 C 92 % 995,4 hPa 0,0 l/m 0 min 0 min 0 W/m 19,3 km/h (3 Bft) 97,83 %
08.12.2021 05:28 5,0 C 4,4 C 2,2 C 93 % 995,4 hPa 0,0 l/m 0 min 0 min 0 W/m 12,9 km/h (3 Bft) 100,00 %
08.12.2021 05:30 5,0 C 4,4 C 2,2 C 92 % 995,4 hPa 0,0 l/m 0 min 0 min 0 W/m 12,9 km/h (3 Bft) 100,00 %
08.12.2021 05:32 5,0 C 4,4 C 2,2 C 92 % 995,4 hPa 0,0 l/m 0 min 0 min 0 W/m 12,9 km/h (3 Bft) 100,00 %
08.12.2021 05:34 5,0 C 4,4 C 2,2 C 92 % 995,4 hPa 0,0 l/m 0 min 0 min 0 W/m 6,4 km/h (2 Bft) 100,00 %
08.12.2021 05:36 5,1 C 4,4 C 2,2 C 92 % 995,4 hPa 0,0 l/m 0 min 0 min 0 W/m 16,1 km/h (3 Bft) 100,00 %
08.12.2021 05:38 5,1 C 5,0 C 2,2 C 93 % 995,4 hPa 0,0 l/m 0 min 0 min 0 W/m 16,1 km/h (3 Bft) 97,87 %
08.12.2021 05:40 5,1 C 4,4 C 2,2 C 93 % 995,4 hPa 0,0 l/m 0 min 0 min 0 W/m 9,7 km/h (2 Bft) 100,00 %
08.12.2021 05:42 5,1 C 4,4 C 2,2 C 93 % 995,4 hPa 0,0 l/m 0 min 0 min 0 W/m 12,9 km/h (3 Bft) 100,00 %
08.12.2021 05:44 5,1 C 4,4 C 2,2 C 93 % 995,5 hPa 0,0 l/m 0 min 0 min 0 W/m 12,9 km/h (3 Bft) 100,00 %
08.12.2021 05:46 5,1 C 4,4 C 2,2 C 93 % 995,6 hPa 0,0 l/m 0 min 0 min 0 W/m 12,9 km/h (3 Bft) 100,00 %
08.12.2021 05:48 5,1 C 4,4 C 2,2 C 93 % 995,6 hPa 0,0 l/m 0 min 0 min 0 W/m 12,9 km/h (3 Bft) 100,00 %
08.12.2021 05:50 5,1 C 4,4 C 2,2 C 93 % 995,6 hPa 0,0 l/m 0 min 0 min 0 W/m 12,9 km/h (3 Bft) 100,00 %
08.12.2021 05:52 5,1 C 4,4 C 2,2 C 93 % 995,6 hPa 0,0 l/m 0 min 0 min 0 W/m 16,1 km/h (3 Bft) 100,00 %
08.12.2021 05:54 5,1 C 4,4 C 2,2 C 93 % 995,6 hPa 0,0 l/m 0 min 0 min 0 W/m 12,9 km/h (3 Bft) 100,00 %
08.12.2021 05:56 5,1 C 4,4 C 2,2 C 93 % 995,7 hPa 0,0 l/m 0 min 0 min 0 W/m 16,1 km/h (3 Bft) 100,00 %
08.12.2021 05:58 5,0 C 4,4 C 2,2 C 93 % 995,6 hPa 0,0 l/m 0 min 0 min 0 W/m 16,1 km/h (3 Bft) 100,00 %
08.12.2021 06:00 5,0 C 4,4 C 2,2 C 93 % 995,7 hPa 0,0 l/m 0 min 0 min 0 W/m 12,9 km/h (3 Bft) 100,00 %
08.12.2021 06:02 4,9 C 4,4 C 2,2 C 93 % 995,7 hPa 0,0 l/m 0 min 0 min 0 W/m 6,4 km/h (2 Bft) 100,00 %
08.12.2021 06:04 4,9 C 4,4 C 2,2 C 93 % 995,8 hPa 0,0 l/m 0 min 0 min 0 W/m 6,4 km/h (2 Bft) 100,00 %
08.12.2021 06:06 4,9 C 3,9 C 2,2 C 93 % 995,8 hPa 0,0 l/m 0 min 0 min 0 W/m 6,4 km/h (2 Bft) 100,00 %
08.12.2021 06:08 4,9 C 3,9 C 2,2 C 93 % 995,9 hPa 0,0 l/m 0 min 0 min 0 W/m 9,7 km/h (2 Bft) 100,00 %
08.12.2021 06:10 4,9 C 3,9 C 2,2 C 93 % 995,9 hPa 0,0 l/m 0 min 0 min 0 W/m 12,9 km/h (3 Bft) 100,00 %
08.12.2021 06:12 4,8 C 3,9 C 2,2 C 93 % 995,9 hPa 0,0 l/m 0 min 0 min 0 W/m 16,1 km/h (3 Bft) 100,00 %
08.12.2021 06:14 4,8 C 3,9 C 2,2 C 93 % 995,9 hPa 0,0 l/m 0 min 0 min 0 W/m 9,7 km/h (2 Bft) 100,00 %
08.12.2021 06:16 4,8 C 3,9 C 1,7 C 93 % 996,0 hPa 0,0 l/m 0 min 0 min 0 W/m 12,9 km/h (3 Bft) 100,00 %
08.12.2021 06:18 4,8 C 3,9 C 1,7 C 93 % 995,9 hPa 0,0 l/m 0 min 0 min 0 W/m 12,9 km/h (3 Bft) 97,83 %
08.12.2021 06:20 4,7 C 3,9 C 1,7 C 93 % 995,9 hPa 0,0 l/m 0 min 0 min 0 W/m 12,9 km/h (3 Bft) 100,00 %
08.12.2021 06:22 4,7 C 3,9 C 1,7 C 93 % 995,9 hPa 0,0 l/m 0 min 0 min 0 W/m 16,1 km/h (3 Bft) 100,00 %
08.12.2021 06:24 4,7 C 3,9 C 1,7 C 93 % 995,9 hPa 0,0 l/m 0 min 0 min 0 W/m 9,7 km/h (2 Bft) 100,00 %
08.12.2021 06:26 4,7 C 3,9 C 1,7 C 93 % 995,9 hPa 0,0 l/m 0 min 0 min 0 W/m 12,9 km/h (3 Bft) 95,74 %
08.12.2021 06:28 4,7 C 3,9 C 1,7 C 93 % 995,9 hPa 0,0 l/m 0 min 0 min 0 W/m 12,9 km/h (3 Bft) 97,83 %
08.12.2021 06:30 4,7 C 3,9 C 2,2 C 93 % 995,9 hPa 0,0 l/m 0 min 0 min 0 W/m 12,9 km/h (3 Bft) 97,87 %
08.12.2021 06:32 4,7 C 3,9 C 2,2 C 93 % 995,9 hPa 0,0 l/m 0 min 0 min 0 W/m 6,4 km/h (2 Bft) 97,87 %
08.12.2021 06:34 4,6 C 3,9 C 2,2 C 93 % 995,9 hPa 0,0 l/m 0 min 0 min 0 W/m 6,4 km/h (2 Bft) 95,74 %
08.12.2021 06:36 4,6 C 4,4 C 2,2 C 93 % 995,8 hPa 0,0 l/m 0 min 0 min 0 W/m 16,1 km/h (3 Bft) 95,74 %
08.12.2021 06:38 4,6 C 4,4 C 2,2 C 93 % 995,9 hPa 0,0 l/m 0 min 0 min 0 W/m 12,9 km/h (3 Bft) 97,87 %
08.12.2021 06:40 4,6 C 4,4 C 2,2 C 93 % 995,9 hPa 0,0 l/m 0 min 0 min 0 W/m 12,9 km/h (3 Bft) 97,83 %
08.12.2021 06:42 4,7 C 4,4 C 2,2 C 93 % 995,9 hPa 0,0 l/m 0 min 0 min 0 W/m 12,9 km/h (3 Bft) 97,87 %
08.12.2021 06:44 4,7 C 4,4 C 2,2 C 93 % 995,9 hPa 0,0 l/m 0 min 0 min 0 W/m 12,9 km/h (3 Bft) 95,74 %
08.12.2021 06:46 4,7 C 4,4 C 2,2 C 93 % 995,8 hPa 0,0 l/m 0 min 0 min 0 W/m 6,4 km/h (2 Bft) 97,87 %
08.12.2021 06:48 4,7 C 4,4 C 2,2 C 93 % 995,9 hPa 0,0 l/m 0 min 0 min 0 W/m 9,7 km/h (2 Bft) 97,87 %
08.12.2021 06:50 4,7 C 4,4 C 2,2 C 93 % 995,9 hPa 0,0 l/m 0 min 0 min 0 W/m 16,1 km/h (3 Bft) 97,87 %
08.12.2021 06:52 4,7 C 4,4 C 2,2 C 93 % 995,9 hPa 0,0 l/m 0 min 0 min 0 W/m 19,3 km/h (3 Bft) 97,83 %
08.12.2021 06:54 4,7 C 4,4 C 2,2 C 93 % 995,9 hPa 0,0 l/m 0 min 0 min 0 W/m 9,7 km/h (2 Bft) 51,22 %
08.12.2021 06:56 4,7 C 4,4 C 2,2 C 93 % 996,0 hPa 0,0 l/m 0 min 0 min 0 W/m 12,9 km/h (3 Bft) 97,06 %
08.12.2021 06:58 4,7 C 4,4 C 2,2 C 93 % 996,0 hPa 0,0 l/m 0 min 0 min 0 W/m 12,9 km/h (3 Bft) 97,87 %
08.12.2021 07:00 4,7 C 4,4 C 2,2 C 93 % 996,1 hPa 0,0 l/m 0 min 0 min 0 W/m 9,7 km/h (2 Bft) 95,74 %
08.12.2021 07:02 4,7 C 4,4 C 2,2 C 93 % 996,1 hPa 0,0 l/m 0 min 0 min 0 W/m 9,7 km/h (2 Bft) 95,74 %
08.12.2021 07:04 4,7 C 4,4 C 2,2 C 93 % 996,2 hPa 0,0 l/m 0 min 0 min 0 W/m 12,9 km/h (3 Bft) 97,83 %
08.12.2021 07:06 4,7 C 4,4 C 2,2 C 93 % 996,2 hPa 0,0 l/m 0 min 0 min 0 W/m 6,4 km/h (2 Bft) 97,87 %
08.12.2021 07:08 4,7 C 4,4 C 2,2 C 93 % 996,1 hPa 0,0 l/m 0 min 0 min 0 W/m 19,3 km/h (3 Bft) 95,74 %
08.12.2021 07:10 4,7 C 4,4 C 2,2 C 93 % 996,2 hPa 0,0 l/m 0 min 0 min 0 W/m 19,3 km/h (3 Bft) 95,74 %
08.12.2021 07:12 4,8 C 4,4 C 2,2 C 93 % 996,1 hPa 0,0 l/m 0 min 0 min 0 W/m 22,5 km/h (4 Bft) 97,87 %
08.12.2021 07:14 4,8 C 4,4 C 2,2 C 93 % 996,1 hPa 0,0 l/m 0 min 0 min 0 W/m 16,1 km/h (3 Bft) 97,87 %
08.12.2021 07:16 4,8 C 4,4 C 2,2 C 93 % 996,2 hPa 0,0 l/m 0 min 0 min 0 W/m 12,9 km/h (3 Bft) 93,48 %
08.12.2021 07:18 4,8 C 4,4 C 2,2 C 93 % 996,2 hPa 0,0 l/m 0 min 0 min 0 W/m 12,9 km/h (3 Bft) 95,74 %
08.12.2021 07:20 4,8 C 4,4 C 2,2 C 93 % 996,1 hPa 0,0 l/m 0 min 0 min 0 W/m 12,9 km/h (3 Bft) 93,62 %
08.12.2021 07:22 4,8 C 4,4 C 2,2 C 93 % 996,1 hPa 0,0 l/m 0 min 0 min 0 W/m 9,7 km/h (2 Bft) 95,74 %
08.12.2021 07:24 4,8 C 4,4 C 2,2 C 93 % 996,2 hPa 0,0 l/m 0 min 0 min 0 W/m 9,7 km/h (2 Bft) 95,74 %
08.12.2021 07:26 4,8 C 4,4 C 2,2 C 93 % 996,2 hPa 0,0 l/m 0 min 0 min 0 W/m 12,9 km/h (3 Bft) 93,62 %
08.12.2021 07:28 4,8 C 4,4 C 2,2 C 93 % 996,3 hPa 0,0 l/m 0 min 0 min 0 W/m 12,9 km/h (3 Bft) 95,65 %
08.12.2021 07:30 4,8 C 4,4 C 2,2 C 93 % 996,3 hPa 0,0 l/m 0 min 0 min 0 W/m 9,7 km/h (2 Bft) 95,74 %
08.12.2021 07:32 4,8 C 4,4 C 2,2 C 93 % 996,4 hPa 0,0 l/m 0 min 0 min 0 W/m 12,9 km/h (3 Bft) 95,74 %
08.12.2021 07:34 4,8 C 4,4 C 2,2 C 93 % 996,3 hPa 0,0 l/m 0 min 0 min 0 W/m 6,4 km/h (2 Bft) 95,74 %
08.12.2021 07:36 4,8 C 4,4 C 2,2 C 93 % 996,4 hPa 0,0 l/m 0 min 0 min 0 W/m 6,4 km/h (2 Bft) 89,36 %
08.12.2021 07:38 4,8 C 4,4 C 2,2 C 93 % 996,4 hPa 0,0 l/m 0 min 0 min 0 W/m 9,7 km/h (2 Bft) 95,65 %
08.12.2021 07:40 4,8 C 4,4 C 2,2 C 93 % 996,4 hPa 0,0 l/m 0 min 0 min 0 W/m 12,9 km/h (3 Bft) 95,74 %
08.12.2021 07:42 4,8 C 4,4 C 2,2 C 93 % 996,3 hPa 0,0 l/m 0 min 0 min 0 W/m 9,7 km/h (2 Bft) 95,74 %
08.12.2021 07:44 4,8 C 4,4 C 2,2 C 93 % 996,4 hPa 0,0 l/m 0 min 0 min 0 W/m 12,9 km/h (3 Bft) 93,62 %
08.12.2021 07:46 4,8 C 4,4 C 2,2 C 93 % 996,4 hPa 0,0 l/m 0 min 0 min 0 W/m 12,9 km/h (3 Bft) 93,62 %
08.12.2021 07:48 4,8 C 4,4 C 2,2 C 93 % 996,5 hPa 0,0 l/m 0 min 0 min 0 W/m 12,9 km/h (3 Bft) 97,87 %
08.12.2021 07:50 4,8 C 4,4 C 2,2 C 93 % 996,5 hPa 0,0 l/m 0 min 0 min 0 W/m 16,1 km/h (3 Bft) 95,65 %
08.12.2021 07:52 4,8 C 4,4 C 2,2 C 93 % 996,6 hPa 0,0 l/m 0 min 0 min 0 W/m 16,1 km/h (3 Bft) 97,87 %
08.12.2021 07:54 4,8 C 4,4 C 2,2 C 92 % 996,6 hPa 0,0 l/m 0 min 0 min 0 W/m 12,9 km/h (3 Bft) 100,00 %
08.12.2021 07:55 4,8 C 4,4 C 2,2 C 92 % 996,5 hPa 0,0 l/m 0 min 0 min 0 W/m 16,1 km/h (3 Bft) 100,00 %
08.12.2021 07:58 4,8 C 4,4 C 2,2 C 92 % 996,5 hPa 0,0 l/m 0 min 0 min 0 W/m 12,9 km/h (3 Bft) 100,00 %
08.12.2021 08:00 4,9 C 4,4 C 2,2 C 92 % 996,5 hPa 0,0 l/m 0 min 0 min 0 W/m 12,9 km/h (3 Bft) 100,00 %
08.12.2021 08:02 4,9 C 4,4 C 2,2 C 92 % 996,6 hPa 0,0 l/m 0 min 0 min 0 W/m 12,9 km/h (3 Bft) 100,00 %
08.12.2021 08:04 4,9 C 4,4 C 2,2 C 92 % 996,7 hPa 0,0 l/m 0 min 0 min 0 W/m 12,9 km/h (3 Bft) 97,87 %
08.12.2021 08:06 4,9 C 4,4 C 2,2 C 92 % 996,6 hPa 0,0 l/m 0 min 0 min 0 W/m 9,7 km/h (2 Bft) 100,00 %
08.12.2021 08:08 4,9 C 4,4 C 2,2 C 92 % 996,6 hPa 0,0 l/m 0 min 0 min 0 W/m 6,4 km/h (2 Bft) 100,00 %
08.12.2021 08:10 4,9 C 4,4 C 2,2 C 92 % 996,6 hPa 0,0 l/m 0 min 0 min 0 W/m 6,4 km/h (2 Bft) 100,00 %
08.12.2021 08:12 4,9 C 4,4 C 2,2 C 92 % 996,7 hPa 0,0 l/m 0 min 0 min 0 W/m 12,9 km/h (3 Bft) 100,00 %
08.12.2021 08:14 4,9 C 4,4 C 2,2 C 92 % 996,8 hPa 0,0 l/m 0 min 0 min 0 W/m 6,4 km/h (2 Bft) 100,00 %
08.12.2021 08:16 4,8 C 4,4 C 2,2 C 91 % 996,8 hPa 0,0 l/m 0 min 0 min 0 W/m 16,1 km/h (3 Bft) 97,87 %
08.12.2021 08:18 4,8 C 4,4 C 2,2 C 91 % 996,7 hPa 0,0 l/m 0 min 0 min 0 W/m 12,9 km/h (3 Bft) 100,00 %
08.12.2021 08:20 4,8 C 4,4 C 2,2 C 91 % 996,7 hPa 0,0 l/m 0 min 0 min 0 W/m 12,9 km/h (3 Bft) 100,00 %
08.12.2021 08:22 4,8 C 4,4 C 2,2 C 91 % 996,7 hPa 0,0 l/m 0 min 0 min 0 W/m 16,1 km/h (3 Bft) 97,87 %
08.12.2021 08:24 4,8 C 4,4 C 2,2 C 91 % 996,8 hPa 0,0 l/m 0 min 0 min 0 W/m 12,9 km/h (3 Bft) 97,87 %
08.12.2021 08:26 4,8 C 4,4 C 2,2 C 91 % 996,7 hPa 0,0 l/m 0 min 0 min 0 W/m 12,9 km/h (3 Bft) 95,65 %
08.12.2021 08:28 4,8 C 4,4 C 2,2 C 91 % 996,7 hPa 0,0 l/m 0 min 0 min 0 W/m 6,4 km/h (2 Bft) 97,87 %
08.12.2021 08:30 4,8 C 4,4 C 2,2 C 91 % 996,7 hPa 0,0 l/m 0 min 0 min 0 W/m 9,7 km/h (2 Bft) 97,87 %
08.12.2021 08:32 4,8 C 4,4 C 2,2 C 91 % 996,7 hPa 0,0 l/m 0 min 0 min 0 W/m 6,4 km/h (2 Bft) 93,62 %
08.12.2021 08:34 4,8 C 4,4 C 2,2 C 91 % 996,7 hPa 0,0 l/m 0 min 0 min 0 W/m 6,4 km/h (2 Bft) 93,62 %
08.12.2021 08:36 4,8 C 4,4 C 2,2 C 90 % 996,7 hPa 0,0 l/m 0 min 0 min 3 W/m 9,7 km/h (2 Bft) 97,83 %
08.12.2021 08:38 4,8 C 4,4 C 2,2 C 90 % 996,7 hPa 0,0 l/m 0 min 0 min 5 W/m 12,9 km/h (3 Bft) 97,87 %
08.12.2021 08:40 4,7 C 4,4 C 2,2 C 90 % 996,7 hPa 0,0 l/m 0 min 0 min 6 W/m 6,4 km/h (2 Bft) 97,87 %
08.12.2021 08:42 4,7 C 4,4 C 2,2 C 90 % 996,7 hPa 0,0 l/m 0 min 0 min 7 W/m 9,7 km/h (2 Bft) 97,87 %
08.12.2021 08:43 4,7 C 3,9 C 2,2 C 90 % 996,8 hPa 0,0 l/m 0 min 0 min 8 W/m 12,9 km/h (3 Bft) 97,87 %
08.12.2021 08:46 4,7 C 3,9 C 2,2 C 90 % 996,7 hPa 0,0 l/m 0 min 0 min 10 W/m 6,4 km/h (2 Bft) 95,74 %
08.12.2021 08:48 4,7 C 3,9 C 2,2 C 90 % 996,7 hPa 0,0 l/m 0 min 0 min 11 W/m 6,4 km/h (2 Bft) 97,83 %
08.12.2021 08:50 4,7 C 3,9 C 2,2 C 90 % 996,7 hPa 0,0 l/m 0 min 0 min 11 W/m 6,4 km/h (2 Bft) 97,87 %
08.12.2021 08:52 4,7 C 3,9 C 2,2 C 90 % 996,8 hPa 0,0 l/m 0 min 0 min 12 W/m 6,4 km/h (2 Bft) 95,74 %
08.12.2021 08:54 4,7 C 3,9 C 2,2 C 90 % 996,9 hPa 0,0 l/m 0 min 0 min 14 W/m 12,9 km/h (3 Bft) 97,87 %
08.12.2021 08:56 4,7 C 3,9 C 2,2 C 90 % 997,0 hPa 0,0 l/m 0 min 0 min 14 W/m 6,4 km/h (2 Bft) 100,00 %
08.12.2021 08:58 4,6 C 3,9 C 2,2 C 90 % 997,1 hPa 0,0 l/m 0 min 0 min 14 W/m 6,4 km/h (2 Bft) 97,87 %
08.12.2021 09:00 4,6 C 3,9 C 2,2 C 90 % 997,1 hPa 0,0 l/m 0 min 0 min 15 W/m 6,4 km/h (2 Bft) 95,65 %
08.12.2021 09:02 4,6 C 3,9 C 2,2 C 90 % 997,2 hPa 0,0 l/m 0 min 0 min 17 W/m 6,4 km/h (2 Bft) 55,56 %
08.12.2021 09:04 4,6 C 4,4 C 2,2 C 90 % 997,2 hPa 0,0 l/m 0 min 0 min 19 W/m 12,9 km/h (3 Bft) 100,00 %
08.12.2021 09:06 4,6 C 4,4 C 2,2 C 90 % 997,2 hPa 0,0 l/m 0 min 0 min 21 W/m 9,7 km/h (2 Bft) 98,00 %
08.12.2021 09:08 4,6 C 4,4 C 2,2 C 90 % 997,2 hPa 0,0 l/m 0 min 0 min 22 W/m 12,9 km/h (3 Bft) 100,00 %
08.12.2021 09:10 4,6 C 4,4 C 2,2 C 90 % 997,2 hPa 0,0 l/m 0 min 0 min 21 W/m 6,4 km/h (2 Bft) 100,00 %
08.12.2021 09:12 4,6 C 4,4 C 2,2 C 90 % 997,2 hPa 0,0 l/m 0 min 0 min 23 W/m 9,7 km/h (2 Bft) 100,00 %
08.12.2021 09:14 4,6 C 4,4 C 2,2 C 90 % 997,2 hPa 0,0 l/m 0 min 0 min 25 W/m 6,4 km/h (2 Bft) 100,00 %
08.12.2021 09:16 4,6 C 4,4 C 2,2 C 90 % 997,2 hPa 0,0 l/m 0 min 0 min 27 W/m 6,4 km/h (2 Bft) 97,87 %
08.12.2021 09:18 4,6 C 4,4 C 2,2 C 90 % 997,2 hPa 0,0 l/m 0 min 0 min 28 W/m 9,7 km/h (2 Bft) 100,00 %
08.12.2021 09:20 4,6 C 4,4 C 2,2 C 90 % 997,2 hPa 0,0 l/m 0 min 0 min 31 W/m 6,4 km/h (2 Bft) 100,00 %
08.12.2021 09:22 4,6 C 4,4 C 2,2 C 90 % 997,3 hPa 0,0 l/m 0 min 0 min 33 W/m 6,4 km/h (2 Bft) 100,00 %
08.12.2021 09:24 4,6 C 4,4 C 2,2 C 90 % 997,3 hPa 0,0 l/m 0 min 0 min 34 W/m 12,9 km/h (3 Bft) 100,00 %
08.12.2021 09:26 4,6 C 4,4 C 2,2 C 90 % 997,2 hPa 0,0 l/m 0 min 0 min 35 W/m 3,2 km/h (1 Bft) 98,00 %
08.12.2021 09:28 4,6 C 4,4 C 2,2 C 90 % 997,3 hPa 0,0 l/m 0 min 0 min 33 W/m 9,7 km/h (2 Bft) 97,14 %
08.12.2021 09:30 4,6 C 4,4 C 2,2 C 90 % 997,3 hPa 0,0 l/m 0 min 0 min 33 W/m 6,4 km/h (2 Bft) 100,00 %
08.12.2021 09:32 4,6 C 4,4 C 2,2 C 90 % 997,3 hPa 0,0 l/m 0 min 0 min 32 W/m 6,4 km/h (2 Bft) 100,00 %
08.12.2021 09:34 4,6 C 4,4 C 2,2 C 90 % 997,4 hPa 0,0 l/m 0 min 0 min 35 W/m 6,4 km/h (2 Bft) 100,00 %
08.12.2021 09:36 4,6 C 4,4 C 2,2 C 90 % 997,3 hPa 0,0 l/m 0 min 0 min 39 W/m 16,1 km/h (3 Bft) 97,14 %
08.12.2021 09:38 4,6 C 4,4 C 2,2 C 90 % 997,3 hPa 0,0 l/m 0 min 0 min 42 W/m 16,1 km/h (3 Bft) 100,00 %
08.12.2021 09:40 4,6 C 4,4 C 2,2 C 90 % 997,3 hPa 0,0 l/m 0 min 0 min 47 W/m 6,4 km/h (2 Bft) 97,87 %
08.12.2021 09:42 4,6 C 4,4 C 2,2 C 90 % 997,4 hPa 0,0 l/m 0 min 0 min 50 W/m 12,9 km/h (3 Bft) 98,11 %
08.12.2021 09:44 4,6 C 4,4 C 2,2 C 90 % 997,4 hPa 0,0 l/m 0 min 0 min 48 W/m 12,9 km/h (3 Bft) 97,87 %
08.12.2021 09:46 4,6 C 4,4 C 2,2 C 90 % 997,5 hPa 0,0 l/m 0 min 0 min 49 W/m 6,4 km/h (2 Bft) 97,83 %
08.12.2021 09:48 4,6 C 4,4 C 2,2 C 90 % 997,6 hPa 0,0 l/m 0 min 0 min 53 W/m 12,9 km/h (3 Bft) 95,74 %
08.12.2021 09:50 4,7 C 4,4 C 2,2 C 90 % 997,6 hPa 0,0 l/m 0 min 0 min 56 W/m 6,4 km/h (2 Bft) 97,87 %
08.12.2021 09:52 4,7 C 4,4 C 2,2 C 90 % 997,5 hPa 0,0 l/m 0 min 0 min 55 W/m 6,4 km/h (2 Bft) 97,87 %
08.12.2021 09:54 4,7 C 4,4 C 2,2 C 90 % 997,5 hPa 0,0 l/m 0 min 0 min 54 W/m 6,4 km/h (2 Bft) 97,87 %
08.12.2021 09:56 4,7 C 4,4 C 2,2 C 90 % 997,5 hPa 0,0 l/m 0 min 0 min 54 W/m 12,9 km/h (3 Bft) 97,87 %
08.12.2021 09:58 4,7 C 4,4 C 2,2 C 90 % 997,6 hPa 0,0 l/m 0 min 0 min 49 W/m 12,9 km/h (3 Bft) 100,00 %
08.12.2021 10:00 4,7 C 5,0 C 2,2 C 90 % 997,7 hPa 0,0 l/m 0 min 0 min 44 W/m 6,4 km/h (2 Bft) 93,62 %
08.12.2021 10:02 4,8 C 5,0 C 2,2 C 90 % 997,7 hPa 0,0 l/m 0 min 0 min 38 W/m 6,4 km/h (2 Bft) 93,62 %
08.12.2021 10:04 4,8 C 5,0 C 2,8 C 90 % 997,7 hPa 0,0 l/m 0 min 0 min 32 W/m 6,4 km/h (2 Bft) 65,96 %
08.12.2021 10:06 4,8 C 5,0 C 2,8 C 90 % 997,6 hPa 0,0 l/m 0 min 0 min 33 W/m 6,4 km/h (2 Bft) 83,33 %
08.12.2021 10:08 4,8 C 5,0 C 2,8 C 90 % 997,7 hPa 0,0 l/m 0 min 0 min 39 W/m 6,4 km/h (2 Bft) 95,74 %
08.12.2021 10:10 4,8 C 5,0 C 2,8 C 90 % 997,6 hPa 0,0 l/m 0 min 0 min 47 W/m 16,1 km/h (3 Bft) 95,65 %
08.12.2021 10:12 4,9 C 5,0 C 2,8 C 90 % 997,6 hPa 0,0 l/m 0 min 0 min 53 W/m 12,9 km/h (3 Bft) 93,62 %
08.12.2021 10:14 4,9 C 5,0 C 2,8 C 90 % 997,6 hPa 0,0 l/m 0 min 0 min 58 W/m 12,9 km/h (3 Bft) 93,62 %
08.12.2021 10:16 4,9 C 5,0 C 2,8 C 89 % 997,6 hPa 0,0 l/m 0 min 0 min 60 W/m 12,9 km/h (3 Bft) 93,62 %
08.12.2021 10:18 5,0 C 5,0 C 2,8 C 89 % 997,6 hPa 0,0 l/m 0 min 0 min 59 W/m 6,4 km/h (2 Bft) 95,74 %
08.12.2021 10:20 5,1 C 5,0 C 2,8 C 89 % 997,6 hPa 0,0 l/m 0 min 0 min 62 W/m 25,7 km/h (4 Bft) 93,62 %
08.12.2021 10:22 5,1 C 5,6 C 2,8 C 89 % 997,6 hPa 0,0 l/m 0 min 0 min 64 W/m 16,1 km/h (3 Bft) 91,30 %
08.12.2021 10:24 5,2 C 5,6 C 2,8 C 89 % 997,6 hPa 0,0 l/m 0 min 0 min 60 W/m 29,0 km/h (5 Bft) 95,74 %
08.12.2021 10:26 5,2 C 5,6 C 2,8 C 89 % 997,6 hPa 0,0 l/m 0 min 0 min 57 W/m 16,1 km/h (3 Bft) 93,62 %
08.12.2021 10:28 5,2 C 5,6 C 3,3 C 88 % 997,6 hPa 0,0 l/m 0 min 0 min 57 W/m 19,3 km/h (3 Bft) 95,74 %
08.12.2021 10:30 5,3 C 5,6 C 3,3 C 88 % 997,7 hPa 0,0 l/m 0 min 0 min 59 W/m 16,1 km/h (3 Bft) 95,74 %
08.12.2021 10:32 5,3 C 5,6 C 3,3 C 88 % 997,6 hPa 0,0 l/m 0 min 0 min 60 W/m 16,1 km/h (3 Bft) 93,48 %
08.12.2021 10:34 5,4 C 5,6 C 3,3 C 88 % 997,7 hPa 0,0 l/m 0 min 0 min 62 W/m 19,3 km/h (3 Bft) 93,62 %
08.12.2021 10:36 5,4 C 5,6 C 3,3 C 87 % 997,6 hPa 0,0 l/m 0 min 0 min 62 W/m 12,9 km/h (3 Bft) 95,74 %
08.12.2021 10:38 5,4 C 5,6 C 3,3 C 87 % 997,5 hPa 0,0 l/m 0 min 0 min 64 W/m 12,9 km/h (3 Bft) 95,74 %
08.12.2021 10:40 5,4 C 5,6 C 3,3 C 87 % 997,5 hPa 0,0 l/m 0 min 0 min 71 W/m 12,9 km/h (3 Bft) 95,74 %
08.12.2021 10:42 5,5 C 5,6 C 3,3 C 87 % 997,4 hPa 0,0 l/m 0 min 0 min 77 W/m 12,9 km/h (3 Bft) 95,74 %
08.12.2021 10:44 5,5 C 5,6 C 3,3 C 86 % 997,4 hPa 0,0 l/m 0 min 0 min 82 W/m 19,3 km/h (3 Bft) 97,83 %
08.12.2021 10:46 5,6 C 5,6 C 3,3 C 86 % 997,5 hPa 0,0 l/m 0 min 0 min 84 W/m 19,3 km/h (3 Bft) 97,87 %
08.12.2021 10:48 5,6 C 5,6 C 3,3 C 86 % 997,6 hPa 0,0 l/m 0 min 0 min 86 W/m 22,5 km/h (4 Bft) 97,87 %
08.12.2021 10:50 5,6 C 5,6 C 3,3 C 86 % 997,6 hPa 0,0 l/m 0 min 0 min 88 W/m 25,7 km/h (4 Bft) 97,87 %
08.12.2021 10:52 5,6 C 5,6 C 3,3 C 86 % 997,6 hPa 0,0 l/m 0 min 0 min 88 W/m 19,3 km/h (3 Bft) 97,87 %
08.12.2021 10:54 5,7 C 5,6 C 3,3 C 86 % 997,6 hPa 0,0 l/m 0 min 0 min 85 W/m 19,3 km/h (3 Bft) 95,74 %
08.12.2021 10:56 5,7 C 5,6 C 3,3 C 85 % 997,6 hPa 0,0 l/m 0 min 0 min 86 W/m 19,3 km/h (3 Bft) 100,00 %
08.12.2021 10:58 5,7 C 5,6 C 3,3 C 85 % 997,6 hPa 0,0 l/m 0 min 0 min 84 W/m 12,9 km/h (3 Bft) 100,00 %
08.12.2021 11:00 5,7 C 5,6 C 3,3 C 85 % 997,7 hPa 0,0 l/m 0 min 0 min 83 W/m 16,1 km/h (3 Bft) 100,00 %
08.12.2021 11:02 5,8 C 5,6 C 3,3 C 85 % 997,7 hPa 0,0 l/m 0 min 0 min 81 W/m 12,9 km/h (3 Bft) 98,00 %
08.12.2021 11:04 5,8 C 5,6 C 3,3 C 85 % 997,8 hPa 0,0 l/m 0 min 0 min 75 W/m 16,1 km/h (3 Bft) 100,00 %
08.12.2021 11:06 5,8 C 5,6 C 3,3 C 85 % 997,7 hPa 0,0 l/m 0 min 0 min 76 W/m 12,9 km/h (3 Bft) 100,00 %
08.12.2021 11:08 5,8 C 5,6 C 3,3 C 85 % 997,8 hPa 0,0 l/m 0 min 0 min 73 W/m 12,9 km/h (3 Bft) 100,00 %
08.12.2021 11:10 5,8 C 5,6 C 3,3 C 85 % 997,9 hPa 0,0 l/m 0 min 0 min 69 W/m 16,1 km/h (3 Bft) 100,00 %
08.12.2021 11:12 5,8 C 5,6 C 3,3 C 85 % 997,9 hPa 0,0 l/m 0 min 0 min 70 W/m 12,9 km/h (3 Bft) 100,00 %
08.12.2021 11:14 5,8 C 5,6 C 3,3 C 85 % 997,9 hPa 0,0 l/m 0 min 0 min 69 W/m 12,9 km/h (3 Bft) 100,00 %
08.12.2021 11:16 5,8 C 5,6 C 3,3 C 85 % 997,9 hPa 0,0 l/m 0 min 0 min 63 W/m 16,1 km/h (3 Bft) 68,09 %
08.12.2021 11:18 5,9 C 5,6 C 3,3 C 85 % 997,9 hPa 0,0 l/m 0 min 0 min 59 W/m 16,1 km/h (3 Bft) 89,13 %
08.12.2021 11:20 5,9 C 5,6 C 3,3 C 85 % 997,9 hPa 0,0 l/m 0 min 0 min 59 W/m 19,3 km/h (3 Bft) 100,00 %
08.12.2021 11:22 5,9 C 5,6 C 3,3 C 84 % 998,0 hPa 0,0 l/m 0 min 0 min 59 W/m 19,3 km/h (3 Bft) 100,00 %
08.12.2021 11:24 5,9 C 5,6 C 3,3 C 84 % 997,9 hPa 0,0 l/m 0 min 0 min 65 W/m 22,5 km/h (4 Bft) 100,00 %
08.12.2021 11:26 5,9 C 5,6 C 3,3 C 84 % 998,0 hPa 0,0 l/m 0 min 0 min 81 W/m 16,1 km/h (3 Bft) 100,00 %
08.12.2021 11:28 5,9 C 6,1 C 3,3 C 84 % 997,9 hPa 0,0 l/m 0 min 0 min 94 W/m 19,3 km/h (3 Bft) 100,00 %
08.12.2021 11:30 5,9 C 6,1 C 3,3 C 84 % 997,9 hPa 0,0 l/m 0 min 0 min 99 W/m 22,5 km/h (4 Bft) 100,00 %
08.12.2021 11:32 5,9 C 6,1 C 3,3 C 84 % 997,8 hPa 0,0 l/m 0 min 0 min 109 W/m 12,9 km/h (3 Bft) 100,00 %
08.12.2021 11:34 5,9 C 6,1 C 3,3 C 84 % 997,8 hPa 0,0 l/m 0 min 0 min 115 W/m 22,5 km/h (4 Bft) 97,87 %
08.12.2021 11:36 5,9 C 6,1 C 3,3 C 84 % 997,8 hPa 0,0 l/m 0 min 0 min 116 W/m 12,9 km/h (3 Bft) 100,00 %
08.12.2021 11:38 5,9 C 6,1 C 3,3 C 84 % 997,9 hPa 0,0 l/m 0 min 0 min 118 W/m 19,3 km/h (3 Bft) 100,00 %
08.12.2021 11:40 6,0 C 6,1 C 3,3 C 84 % 997,9 hPa 0,0 l/m 0 min 0 min 119 W/m 19,3 km/h (3 Bft) 100,00 %
08.12.2021 11:42 6,0 C 6,1 C 3,3 C 84 % 997,9 hPa 0,0 l/m 0 min 0 min 118 W/m 12,9 km/h (3 Bft) 100,00 %
08.12.2021 11:44 6,0 C 6,1 C 3,3 C 84 % 997,9 hPa 0,0 l/m 0 min 0 min 119 W/m 12,9 km/h (3 Bft) 100,00 %
08.12.2021 11:46 6,0 C 6,1 C 3,3 C 84 % 997,9 hPa 0,0 l/m 0 min 0 min 121 W/m 9,7 km/h (2 Bft) 100,00 %
08.12.2021 11:48 6,0 C 6,1 C 3,3 C 84 % 997,9 hPa 0,0 l/m 0 min 0 min 125 W/m 12,9 km/h (3 Bft) 100,00 %
08.12.2021 11:50 6,1 C 6,1 C 3,3 C 84 % 997,9 hPa 0,0 l/m 0 min 0 min 123 W/m 16,1 km/h (3 Bft) 100,00 %
08.12.2021 11:52 6,1 C 6,1 C 3,3 C 83 % 997,9 hPa 0,0 l/m 0 min 0 min 117 W/m 19,3 km/h (3 Bft) 95,74 %
08.12.2021 11:54 6,1 C 6,1 C 3,3 C 83 % 997,9 hPa 0,0 l/m 0 min 0 min 112 W/m 6,4 km/h (2 Bft) 100,00 %
08.12.2021 11:56 6,1 C 6,1 C 3,3 C 83 % 998,0 hPa 0,0 l/m 0 min 0 min 107 W/m 12,9 km/h (3 Bft) 100,00 %
08.12.2021 11:58 6,1 C 6,1 C 3,3 C 83 % 998,0 hPa 0,0 l/m 0 min 0 min 105 W/m 6,4 km/h (2 Bft) 100,00 %
08.12.2021 12:00 6,1 C 6,1 C 3,3 C 83 % 997,9 hPa 0,0 l/m 0 min 0 min 104 W/m 16,1 km/h (3 Bft) 100,00 %
08.12.2021 12:02 6,1 C 6,1 C 3,3 C 83 % 997,9 hPa 0,0 l/m 0 min 0 min 105 W/m 9,7 km/h (2 Bft) 100,00 %
08.12.2021 12:04 6,1 C 6,1 C 3,3 C 83 % 998,0 hPa 0,0 l/m 0 min 0 min 105 W/m 9,7 km/h (2 Bft) 100,00 %
08.12.2021 12:07 6,2 C 6,1 C 3,3 C 83 % 997,9 hPa 0,0 l/m 0 min 0 min 103 W/m 16,1 km/h (3 Bft) 98,59 %
08.12.2021 12:08 6,2 C 6,1 C 3,3 C 83 % 997,9 hPa 0,0 l/m 0 min 0 min 101 W/m 12,9 km/h (3 Bft) 100,00 %
08.12.2021 12:10 6,2 C 6,1 C 3,3 C 83 % 998,0 hPa 0,0 l/m 0 min 0 min 102 W/m 16,1 km/h (3 Bft) 100,00 %
08.12.2021 12:12 6,2 C 6,1 C 3,3 C 83 % 997,9 hPa 0,0 l/m 0 min 0 min 104 W/m 22,5 km/h (4 Bft) 97,87 %
08.12.2021 12:14 6,2 C 6,1 C 3,3 C 83 % 998,0 hPa 0,0 l/m 0 min 0 min 101 W/m 19,3 km/h (3 Bft) 97,83 %
08.12.2021 12:16 6,2 C 6,1 C 3,3 C 83 % 998,1 hPa 0,0 l/m 0 min 0 min 96 W/m 12,9 km/h (3 Bft) 97,87 %
08.12.2021 12:18 6,2 C 6,1 C 3,3 C 83 % 998,1 hPa 0,0 l/m 0 min 0 min 92 W/m 16,1 km/h (3 Bft) 100,00 %
08.12.2021 12:20 6,2 C 6,1 C 3,3 C 83 % 998,1 hPa 0,0 l/m 0 min 0 min 90 W/m 16,1 km/h (3 Bft) 97,87 %
08.12.2021 12:22 6,2 C 6,1 C 3,3 C 83 % 998,2 hPa 0,0 l/m 0 min 0 min 86 W/m 12,9 km/h (3 Bft) 97,87 %
08.12.2021 12:24 6,2 C 6,1 C 3,3 C 83 % 998,2 hPa 0,0 l/m 0 min 0 min 82 W/m 12,9 km/h (3 Bft) 95,74 %
08.12.2021 12:26 6,2 C 6,1 C 3,3 C 83 % 998,3 hPa 0,0 l/m 0 min 0 min 83 W/m 12,9 km/h (3 Bft) 97,83 %
08.12.2021 12:28 6,3 C 6,1 C 3,3 C 83 % 998,3 hPa 0,0 l/m 0 min 0 min 81 W/m 22,5 km/h (4 Bft) 95,74 %
08.12.2021 12:30 6,3 C 6,1 C 3,3 C 83 % 998,2 hPa 0,0 l/m 0 min 0 min 80 W/m 19,3 km/h (3 Bft) 97,87 %
08.12.2021 12:32 6,3 C 6,1 C 3,3 C 83 % 998,3 hPa 0,0 l/m 0 min 0 min 82 W/m 16,1 km/h (3 Bft) 95,74 %
08.12.2021 12:34 6,3 C 6,1 C 3,3 C 83 % 998,3 hPa 0,0 l/m 0 min 0 min 80 W/m 16,1 km/h (3 Bft) 93,62 %
08.12.2021 12:36 6,3 C 6,1 C 3,3 C 83 % 998,2 hPa 0,0 l/m 0 min 0 min 80 W/m 12,9 km/h (3 Bft) 93,62 %
08.12.2021 12:38 6,3 C 6,1 C 3,3 C 83 % 998,2 hPa 0,0 l/m 0 min 0 min 88 W/m 22,5 km/h (4 Bft) 93,48 %
08.12.2021 12:40 6,3 C 6,1 C 3,3 C 83 % 998,2 hPa 0,0 l/m 0 min 0 min 96 W/m 16,1 km/h (3 Bft) 93,62 %
08.12.2021 12:42 6,3 C 6,1 C 3,3 C 83 % 998,1 hPa 0,0 l/m 0 min 0 min 102 W/m 12,9 km/h (3 Bft) 93,62 %
08.12.2021 12:44 6,3 C 6,1 C 3,9 C 83 % 998,1 hPa 0,0 l/m 0 min 0 min 104 W/m 16,1 km/h (3 Bft) 91,49 %
08.12.2021 12:46 6,3 C 6,1 C 3,9 C 83 % 998,1 hPa 0,0 l/m 0 min 0 min 99 W/m 12,9 km/h (3 Bft) 93,62 %
08.12.2021 12:48 6,3 C 6,1 C 3,9 C 83 % 998,1 hPa 0,0 l/m 0 min 0 min 91 W/m 16,1 km/h (3 Bft) 100,00 %
08.12.2021 12:50 6,3 C 6,1 C 3,9 C 83 % 998,0 hPa 0,0 l/m 0 min 0 min 93 W/m 9,7 km/h (2 Bft) 97,83 %
08.12.2021 12:52 6,3 C 6,1 C 3,9 C 82 % 998,0 hPa 0,0 l/m 0 min 0 min 91 W/m 12,9 km/h (3 Bft) 91,49 %
08.12.2021 12:54 6,3 C 6,7 C 3,9 C 82 % 998,0 hPa 0,0 l/m 0 min 0 min 92 W/m 16,1 km/h (3 Bft) 89,36 %
08.12.2021 12:56 6,4 C 6,7 C 3,9 C 82 % 997,9 hPa 0,0 l/m 0 min 0 min 95 W/m 12,9 km/h (3 Bft) 95,74 %
08.12.2021 12:58 6,4 C 6,7 C 3,9 C 82 % 997,9 hPa 0,0 l/m 0 min 0 min 99 W/m 9,7 km/h (2 Bft) 95,83 %
08.12.2021 13:00 6,4 C 6,7 C 3,9 C 82 % 997,9 hPa 0,0 l/m 0 min 0 min 105 W/m 12,9 km/h (3 Bft) 95,74 %
08.12.2021 13:02 6,4 C 6,7 C 3,9 C 82 % 997,9 hPa 0,0 l/m 0 min 0 min 107 W/m 19,3 km/h (3 Bft) 95,83 %
08.12.2021 13:04 6,4 C 6,7 C 3,9 C 82 % 997,9 hPa 0,0 l/m 0 min 0 min 112 W/m 22,5 km/h (4 Bft) 95,12 %
08.12.2021 13:06 6,4 C 6,7 C 3,9 C 81 % 997,9 hPa 0,0 l/m 0 min 0 min 113 W/m 29,0 km/h (5 Bft) 95,74 %
08.12.2021 13:08 6,4 C 7,2 C 3,9 C 81 % 997,9 hPa 0,0 l/m 0 min 0 min 112 W/m 9,7 km/h (2 Bft) 95,74 %
08.12.2021 13:10 6,4 C 7,2 C 3,9 C 81 % 998,0 hPa 0,0 l/m 0 min 0 min 111 W/m 16,1 km/h (3 Bft) 97,87 %
08.12.2021 13:12 6,5 C 7,2 C 3,9 C 81 % 998,1 hPa 0,0 l/m 0 min 0 min 116 W/m 16,1 km/h (3 Bft) 93,62 %
08.12.2021 13:14 6,5 C 7,2 C 3,9 C 81 % 998,1 hPa 0,0 l/m 0 min 0 min 127 W/m 16,1 km/h (3 Bft) 95,65 %
08.12.2021 13:16 6,5 C 7,2 C 3,9 C 81 % 998,1 hPa 0,0 l/m 0 min 0 min 130 W/m 12,9 km/h (3 Bft) 95,74 %
08.12.2021 13:18 6,6 C 7,2 C 3,9 C 81 % 998,2 hPa 0,0 l/m 0 min 0 min 130 W/m 19,3 km/h (3 Bft) 97,87 %
08.12.2021 13:20 6,6 C 7,2 C 3,9 C 81 % 998,2 hPa 0,0 l/m 0 min 0 min 132 W/m 22,5 km/h (4 Bft) 95,74 %
08.12.2021 13:22 6,6 C 7,2 C 3,9 C 81 % 998,2 hPa 0,0 l/m 0 min 0 min 139 W/m 12,9 km/h (3 Bft) 97,87 %
08.12.2021 13:24 6,6 C 7,2 C 3,9 C 80 % 998,2 hPa 0,0 l/m 0 min 0 min 129 W/m 12,9 km/h (3 Bft) 97,87 %
08.12.2021 13:26 6,7 C 7,2 C 3,9 C 80 % 998,2 hPa 0,0 l/m 0 min 0 min 118 W/m 16,1 km/h (3 Bft) 97,83 %
08.12.2021 13:28 6,7 C 7,2 C 3,9 C 80 % 998,3 hPa 0,0 l/m 0 min 0 min 135 W/m 16,1 km/h (3 Bft) 100,00 %
08.12.2021 13:30 6,7 C 9,4 C 3,9 C 80 % 998,2 hPa 0,0 l/m 2 min 0 min 260 W/m 19,3 km/h (3 Bft) 100,00 %
08.12.2021 13:32 6,8 C 10,6 C 3,9 C 80 % 998,2 hPa 0,0 l/m 2 min 0 min 305 W/m 25,7 km/h (4 Bft) 100,00 %
08.12.2021 13:34 6,9 C 10,6 C 3,9 C 80 % 998,1 hPa 0,0 l/m 2 min 0 min 278 W/m 19,3 km/h (3 Bft) 100,00 %
08.12.2021 13:36 7,0 C 10,6 C 3,9 C 80 % 998,1 hPa 0,0 l/m 2 min 0 min 281 W/m 25,7 km/h (4 Bft) 100,00 %
08.12.2021 13:38 7,1 C 10,0 C 3,9 C 79 % 998,1 hPa 0,0 l/m 2 min 0 min 268 W/m 22,5 km/h (4 Bft) 100,00 %
08.12.2021 13:40 7,1 C 10,0 C 3,9 C 79 % 998,1 hPa 0,0 l/m 2 min 0 min 236 W/m 22,5 km/h (4 Bft) 100,00 %
08.12.2021 13:42 7,2 C 8,9 C 3,9 C 78 % 998,2 hPa 0,0 l/m 2 min 0 min 137 W/m 35,4 km/h (5 Bft) 100,00 %
08.12.2021 13:44 7,2 C 7,8 C 3,9 C 78 % 998,2 hPa 0,0 l/m 0 min 0 min 93 W/m 22,5 km/h (4 Bft) 100,00 %
08.12.2021 13:46 7,2 C 7,2 C 3,9 C 78 % 998,3 hPa 0,0 l/m 0 min 0 min 77 W/m 25,7 km/h (4 Bft) 100,00 %
08.12.2021 13:48 7,2 C 7,2 C 3,9 C 78 % 998,3 hPa 0,0 l/m 0 min 0 min 86 W/m 19,3 km/h (3 Bft) 97,87 %
08.12.2021 13:50 7,1 C 7,2 C 3,9 C 78 % 998,3 hPa 0,0 l/m 0 min 0 min 99 W/m 22,5 km/h (4 Bft) 100,00 %
08.12.2021 13:52 7,1 C 7,2 C 3,9 C 78 % 998,3 hPa 0,0 l/m 0 min 0 min 105 W/m 16,1 km/h (3 Bft) 100,00 %
08.12.2021 13:54 7,1 C 7,2 C 3,9 C 78 % 998,2 hPa 0,0 l/m 0 min 0 min 103 W/m 16,1 km/h (3 Bft) 100,00 %
08.12.2021 13:56 7,1 C 7,2 C 3,9 C 79 % 998,3 hPa 0,0 l/m 0 min 0 min 106 W/m 22,5 km/h (4 Bft) 100,00 %
08.12.2021 13:58 7,1 C 7,2 C 3,9 C 78 % 998,3 hPa 0,0 l/m 0 min 0 min 119 W/m 22,5 km/h (4 Bft) 100,00 %
08.12.2021 14:00 7,0 C 7,2 C 3,9 C 79 % 998,3 hPa 0,0 l/m 2 min 0 min 146 W/m 12,9 km/h (3 Bft) 100,00 %
08.12.2021 14:02 7,1 C 7,2 C 3,9 C 79 % 998,3 hPa 0,0 l/m 2 min 0 min 169 W/m 22,5 km/h (4 Bft) 100,00 %
08.12.2021 14:04 7,1 C 7,2 C 3,9 C 79 % 998,3 hPa 0,0 l/m 2 min 0 min 173 W/m 19,3 km/h (3 Bft) 100,00 %
08.12.2021 14:06 7,1 C 7,2 C 3,9 C 79 % 998,3 hPa 0,0 l/m 2 min 0 min 158 W/m 12,9 km/h (3 Bft) 55,32 %
08.12.2021 14:08 7,1 C 7,2 C 3,9 C 79 % 998,3 hPa 0,0 l/m 2 min 0 min 154 W/m 16,1 km/h (3 Bft) 100,00 %
08.12.2021 14:10 7,1 C 7,2 C 3,9 C 78 % 998,3 hPa 0,0 l/m 2 min 0 min 140 W/m 16,1 km/h (3 Bft) 97,83 %
08.12.2021 14:12 7,1 C 7,2 C 3,9 C 78 % 998,3 hPa 0,0 l/m 0 min 0 min 93 W/m 22,5 km/h (4 Bft) 97,87 %
08.12.2021 14:14 7,1 C 7,2 C 3,9 C 78 % 998,4 hPa 0,0 l/m 0 min 0 min 84 W/m 9,7 km/h (2 Bft) 100,00 %
08.12.2021 14:16 7,1 C 7,2 C 3,9 C 78 % 998,4 hPa 0,0 l/m 0 min 0 min 91 W/m 12,9 km/h (3 Bft) 100,00 %
08.12.2021 14:18 7,1 C 7,2 C 3,9 C 78 % 998,4 hPa 0,0 l/m 0 min 0 min 94 W/m 16,1 km/h (3 Bft) 100,00 %
08.12.2021 14:20 7,1 C 7,2 C 3,9 C 78 % 998,4 hPa 0,0 l/m 0 min 0 min 98 W/m 22,5 km/h (4 Bft) 100,00 %
08.12.2021 14:22 7,1 C 7,2 C 3,9 C 78 % 998,5 hPa 0,0 l/m 0 min 0 min 106 W/m 12,9 km/h (3 Bft) 100,00 %
08.12.2021 14:24 7,1 C 7,2 C 3,9 C 78 % 998,4 hPa 0,0 l/m 0 min 0 min 104 W/m 12,9 km/h (3 Bft) 100,00 %
08.12.2021 14:26 7,1 C 7,2 C 3,9 C 78 % 998,5 hPa 0,0 l/m 0 min 0 min 96 W/m 16,1 km/h (3 Bft) 100,00 %
08.12.2021 14:28 7,1 C 7,2 C 3,9 C 78 % 998,5 hPa 0,0 l/m 0 min 0 min 80 W/m 16,1 km/h (3 Bft) 97,87 %
08.12.2021 14:30 7,1 C 6,7 C 3,9 C 78 % 998,6 hPa 0,0 l/m 0 min 0 min 65 W/m 16,1 km/h (3 Bft) 100,00 %
08.12.2021 14:32 7,1 C 6,7 C 3,9 C 78 % 998,6 hPa 0,0 l/m 0 min 0 min 64 W/m 12,9 km/h (3 Bft) 97,87 %
08.12.2021 14:34 7,1 C 6,7 C 3,9 C 78 % 998,6 hPa 0,0 l/m 0 min 0 min 75 W/m 9,7 km/h (2 Bft) 97,83 %
08.12.2021 14:36 7,1 C 6,7 C 3,9 C 79 % 998,6 hPa 0,0 l/m 0 min 0 min 98 W/m 16,1 km/h (3 Bft) 100,00 %
08.12.2021 14:38 7,0 C 7,2 C 3,9 C 79 % 998,6 hPa 0,0 l/m 0 min 0 min 94 W/m 6,4 km/h (2 Bft) 95,74 %
08.12.2021 14:40 7,1 C 6,7 C 3,9 C 79 % 998,6 hPa 0,0 l/m 0 min 0 min 67 W/m 12,9 km/h (3 Bft) 100,00 %
08.12.2021 14:42 7,0 C 6,7 C 3,9 C 79 % 998,7 hPa 0,0 l/m 0 min 0 min 56 W/m 16,1 km/h (3 Bft) 97,87 %
08.12.2021 14:44 7,0 C 6,7 C 3,9 C 79 % 998,7 hPa 0,0 l/m 0 min 0 min 55 W/m 19,3 km/h (3 Bft) 100,00 %
08.12.2021 14:46 7,0 C 6,7 C 3,9 C 78 % 998,7 hPa 0,0 l/m 0 min 0 min 44 W/m 19,3 km/h (3 Bft) 100,00 %
08.12.2021 14:48 7,0 C 6,7 C 3,9 C 78 % 998,7 hPa 0,0 l/m 0 min 0 min 37 W/m 19,3 km/h (3 Bft) 95,74 %
08.12.2021 14:50 7,0 C 6,7 C 3,9 C 78 % 998,7 hPa 0,0 l/m 0 min 0 min 38 W/m 12,9 km/h (3 Bft) 95,74 %
08.12.2021 14:52 6,9 C 6,7 C 3,9 C 79 % 998,7 hPa 0,0 l/m 0 min 0 min 39 W/m 19,3 km/h (3 Bft) 93,62 %
08.12.2021 14:54 6,9 C 6,7 C 3,3 C 79 % 998,8 hPa 0,0 l/m 0 min 0 min 43 W/m 12,9 km/h (3 Bft) 97,87 %
08.12.2021 14:56 6,9 C 6,7 C 3,3 C 79 % 998,8 hPa 0,0 l/m 0 min 0 min 44 W/m 16,1 km/h (3 Bft) 97,87 %
08.12.2021 14:58 6,9 C 6,7 C 3,3 C 79 % 998,8 hPa 0,0 l/m 0 min 0 min 36 W/m 12,9 km/h (3 Bft) 97,83 %
08.12.2021 15:00 6,9 C 6,7 C 3,3 C 79 % 998,9 hPa 0,0 l/m 0 min 0 min 34 W/m 9,7 km/h (2 Bft) 97,87 %
08.12.2021 15:02 6,9 C 6,7 C 3,3 C 79 % 998,9 hPa 0,0 l/m 0 min 0 min 36 W/m 12,9 km/h (3 Bft) 95,74 %
08.12.2021 15:04 6,9 C 6,7 C 3,3 C 79 % 998,9 hPa 0,0 l/m 0 min 0 min 33 W/m 12,9 km/h (3 Bft) 97,87 %
08.12.2021 15:06 6,9 C 6,7 C 3,3 C 79 % 998,8 hPa 0,0 l/m 0 min 0 min 32 W/m 6,4 km/h (2 Bft) 95,74 %
08.12.2021 15:08 6,9 C 6,7 C 3,3 C 79 % 998,8 hPa 0,0 l/m 0 min 0 min 31 W/m 6,4 km/h (2 Bft) 97,83 %
08.12.2021 15:10 6,9 C 6,7 C 3,3 C 79 % 998,8 hPa 0,0 l/m 0 min 0 min 32 W/m 12,9 km/h (3 Bft) 95,74 %
08.12.2021 15:12 6,9 C 6,7 C 3,3 C 79 % 998,7 hPa 0,0 l/m 0 min 0 min 40 W/m 9,7 km/h (2 Bft) 97,87 %
08.12.2021 15:14 6,9 C 6,7 C 3,3 C 80 % 998,8 hPa 0,0 l/m 0 min 0 min 51 W/m 6,4 km/h (2 Bft) 95,74 %
08.12.2021 15:16 6,8 C 6,7 C 3,3 C 80 % 998,8 hPa 0,0 l/m 0 min 0 min 53 W/m 6,4 km/h (2 Bft) 93,62 %
08.12.2021 15:18 6,9 C 6,7 C 3,3 C 80 % 998,7 hPa 0,0 l/m 0 min 0 min 49 W/m 12,9 km/h (3 Bft) 95,74 %
08.12.2021 15:20 6,8 C 6,7 C 3,3 C 80 % 998,7 hPa 0,0 l/m 0 min 0 min 48 W/m 9,7 km/h (2 Bft) 95,65 %
08.12.2021 15:22 6,8 C 6,7 C 3,3 C 80 % 998,7 hPa 0,0 l/m 0 min 0 min 58 W/m 16,1 km/h (3 Bft) 93,62 %
08.12.2021 15:24 6,9 C 6,7 C 3,3 C 80 % 998,8 hPa 0,0 l/m 2 min 0 min 67 W/m 9,7 km/h (2 Bft) 100,00 %
08.12.2021 15:26 6,9 C 6,7 C 3,3 C 80 % 998,8 hPa 0,0 l/m 2 min 0 min 71 W/m 19,3 km/h (3 Bft) 97,87 %
08.12.2021 15:28 6,9 C 6,7 C 3,3 C 81 % 998,9 hPa 0,0 l/m 2 min 0 min 61 W/m 6,4 km/h (2 Bft) 93,62 %
08.12.2021 15:30 6,9 C 6,7 C 3,3 C 80 % 998,8 hPa 0,0 l/m 2 min 0 min 59 W/m 12,9 km/h (3 Bft) 93,62 %
08.12.2021 15:32 6,9 C 6,7 C 3,3 C 80 % 998,9 hPa 0,0 l/m 2 min 0 min 57 W/m 9,7 km/h (2 Bft) 93,48 %
08.12.2021 15:34 6,9 C 6,7 C 3,3 C 80 % 998,8 hPa 0,0 l/m 2 min 0 min 61 W/m 19,3 km/h (3 Bft) 95,74 %
08.12.2021 15:36 6,9 C 6,7 C 3,3 C 80 % 998,8 hPa 0,0 l/m 2 min 0 min 60 W/m 9,7 km/h (2 Bft) 95,74 %
08.12.2021 15:38 6,9 C 6,7 C 3,3 C 80 % 998,8 hPa 0,0 l/m 2 min 0 min 54 W/m 12,9 km/h (3 Bft) 95,74 %
08.12.2021 15:40 6,9 C 6,7 C 3,3 C 80 % 998,8 hPa 0,0 l/m 2 min 0 min 48 W/m 9,7 km/h (2 Bft) 93,62 %
08.12.2021 15:42 6,9 C 6,7 C 3,3 C 80 % 998,8 hPa 0,0 l/m 2 min 0 min 49 W/m 9,7 km/h (2 Bft) 95,65 %
08.12.2021 15:44 6,9 C 6,7 C 3,3 C 80 % 998,8 hPa 0,0 l/m 2 min 0 min 49 W/m 16,1 km/h (3 Bft) 95,74 %
08.12.2021 15:46 6,9 C 6,7 C 3,3 C 79 % 998,8 hPa 0,0 l/m 2 min 0 min 45 W/m 12,9 km/h (3 Bft) 93,62 %
08.12.2021 15:48 6,9 C 6,7 C 3,3 C 79 % 998,9 hPa 0,0 l/m 2 min 0 min 37 W/m 9,7 km/h (2 Bft) 95,74 %
08.12.2021 15:50 6,9 C 6,7 C 3,3 C 79 % 998,8 hPa 0,0 l/m 0 min 0 min 31 W/m 9,7 km/h (2 Bft) 95,74 %
08.12.2021 15:52 6,8 C 6,1 C 3,3 C 79 % 998,9 hPa 0,0 l/m 0 min 0 min 26 W/m 6,4 km/h (2 Bft) 95,74 %
08.12.2021 15:54 6,8 C 6,1 C 3,3 C 79 % 998,9 hPa 0,0 l/m 0 min 0 min 24 W/m 9,7 km/h (2 Bft) 95,74 %
08.12.2021 15:56 6,8 C 6,1 C 3,3 C 79 % 998,9 hPa 0,0 l/m 0 min 0 min 22 W/m 12,9 km/h (3 Bft) 95,65 %
08.12.2021 15:58 6,8 C 6,1 C 2,8 C 79 % 998,9 hPa 0,0 l/m 0 min 0 min 19 W/m 12,9 km/h (3 Bft) 93,62 %
08.12.2021 16:00 6,7 C 6,1 C 2,8 C 79 % 999,0 hPa 0,0 l/m 0 min 0 min 17 W/m 6,4 km/h (2 Bft) 93,62 %
08.12.2021 16:02 6,7 C 6,1 C 2,8 C 79 % 999,0 hPa 0,0 l/m 0 min 0 min 17 W/m 6,4 km/h (2 Bft) 93,62 %
08.12.2021 16:04 6,7 C 6,1 C 2,8 C 79 % 999,1 hPa 0,0 l/m 0 min 0 min 18 W/m 12,9 km/h (3 Bft) 97,87 %
08.12.2021 16:06 6,6 C 6,1 C 2,8 C 79 % 999,1 hPa 0,0 l/m 0 min 0 min 19 W/m 6,4 km/h (2 Bft) 100,00 %
08.12.2021 16:08 6,6 C 6,1 C 2,8 C 79 % 999,1 hPa 0,0 l/m 0 min 0 min 18 W/m 6,4 km/h (2 Bft) 100,00 %
08.12.2021 16:10 6,6 C 6,1 C 2,8 C 80 % 999,2 hPa 0,0 l/m 0 min 0 min 16 W/m 3,2 km/h (1 Bft) 100,00 %
08.12.2021 16:12 6,6 C 6,1 C 2,8 C 80 % 999,2 hPa 0,0 l/m 0 min 0 min 12 W/m 6,4 km/h (2 Bft) 100,00 %
08.12.2021 16:14 6,5 C 6,1 C 2,8 C 80 % 999,2 hPa 0,0 l/m 0 min 0 min 11 W/m 12,9 km/h (3 Bft) 100,00 %
08.12.2021 16:16 6,5 C 6,1 C 2,8 C 80 % 999,2 hPa 0,0 l/m 0 min 0 min 8 W/m 6,4 km/h (2 Bft) 100,00 %
08.12.2021 16:18 6,5 C 6,1 C 2,8 C 80 % 999,2 hPa 0,0 l/m 0 min 0 min 7 W/m 3,2 km/h (1 Bft) 97,83 %
08.12.2021 16:20 6,5 C 5,6 C 2,8 C 80 % 999,2 hPa 0,0 l/m 0 min 0 min 7 W/m 6,4 km/h (2 Bft) 97,87 %
08.12.2021 16:22 6,4 C 5,6 C 2,8 C 80 % 999,3 hPa 0,0 l/m 0 min 0 min 5 W/m 6,4 km/h (2 Bft) 100,00 %
08.12.2021 16:24 6,4 C 5,6 C 2,8 C 80 % 999,3 hPa 0,0 l/m 0 min 0 min 4 W/m 12,9 km/h (3 Bft) 100,00 %
08.12.2021 16:26 6,4 C 5,6 C 2,8 C 80 % 999,2 hPa 0,0 l/m 0 min 0 min 0 W/m 6,4 km/h (2 Bft) 97,87 %
08.12.2021 16:28 6,4 C 6,1 C 2,8 C 80 % 999,3 hPa 0,0 l/m 0 min 0 min 0 W/m 12,9 km/h (3 Bft) 100,00 %
08.12.2021 16:30 6,4 C 6,1 C 2,8 C 80 % 999,3 hPa 0,0 l/m 0 min 0 min 0 W/m 9,7 km/h (2 Bft) 100,00 %
08.12.2021 16:32 6,4 C 6,1 C 2,8 C 80 % 999,3 hPa 0,0 l/m 0 min 0 min 0 W/m 3,2 km/h (1 Bft) 100,00 %
08.12.2021 16:34 6,4 C 5,6 C 2,8 C 80 % 999,3 hPa 0,0 l/m 0 min 0 min 0 W/m 12,9 km/h (3 Bft) 100,00 %
08.12.2021 16:36 6,4 C 5,6 C 2,8 C 80 % 999,3 hPa 0,0 l/m 0 min 0 min 0 W/m 6,4 km/h (2 Bft) 97,87 %
08.12.2021 16:38 6,3 C 5,6 C 2,8 C 80 % 999,3 hPa 0,0 l/m 0 min 0 min 0 W/m 6,4 km/h (2 Bft) 100,00 %
08.12.2021 16:40 6,3 C 5,6 C 2,8 C 80 % 999,3 hPa 0,0 l/m 0 min 0 min 0 W/m 6,4 km/h (2 Bft) 97,87 %
08.12.2021 16:42 6,3 C 5,6 C 2,8 C 80 % 999,4 hPa 0,0 l/m 0 min 0 min 0 W/m 12,9 km/h (3 Bft) 97,83 %
08.12.2021 16:44 6,3 C 5,6 C 2,8 C 80 % 999,4 hPa 0,0 l/m 0 min 0 min 0 W/m 6,4 km/h (2 Bft) 97,87 %
08.12.2021 16:46 6,3 C 5,6 C 2,8 C 80 % 999,4 hPa 0,0 l/m 0 min 0 min 0 W/m 9,7 km/h (2 Bft) 100,00 %
08.12.2021 16:48 6,3 C 5,6 C 2,8 C 80 % 999,4 hPa 0,0 l/m 0 min 0 min 0 W/m 6,4 km/h (2 Bft) 100,00 %
08.12.2021 16:50 6,3 C 5,6 C 2,8 C 80 % 999,5 hPa 0,0 l/m 0 min 0 min 0 W/m 9,7 km/h (2 Bft) 97,87 %
08.12.2021 16:52 6,3 C 5,6 C 2,8 C 80 % 999,5 hPa 0,0 l/m 0 min 0 min 0 W/m 9,7 km/h (2 Bft) 97,87 %
08.12.2021 16:54 6,3 C 5,6 C 2,8 C 80 % 999,6 hPa 0,0 l/m 0 min 0 min 0 W/m 6,4 km/h (2 Bft) 42,42 %
08.12.2021 16:56 6,3 C 5,6 C 2,8 C 80 % 999,6 hPa 0,0 l/m 0 min 0 min 0 W/m 9,7 km/h (2 Bft) 95,74 %
08.12.2021 16:58 6,3 C 5,6 C 2,8 C 80 % 999,6 hPa 0,0 l/m 0 min 0 min 0 W/m 16,1 km/h (3 Bft) 97,87 %
08.12.2021 17:00 6,3 C 5,6 C 2,8 C 80 % 999,6 hPa 0,0 l/m 0 min 0 min 0 W/m 6,4 km/h (2 Bft) 97,83 %
08.12.2021 17:02 6,3 C 5,6 C 2,8 C 80 % 999,7 hPa 0,0 l/m 0 min 0 min 0 W/m 6,4 km/h (2 Bft) 97,87 %
08.12.2021 17:04 6,3 C 5,6 C 2,8 C 81 % 999,7 hPa 0,0 l/m 0 min 0 min 0 W/m 3,2 km/h (1 Bft) 97,87 %
08.12.2021 17:06 6,3 C 5,6 C 2,8 C 81 % 999,8 hPa 0,0 l/m 0 min 0 min 0 W/m 3,2 km/h (1 Bft) 97,87 %
08.12.2021 17:08 6,2 C 5,6 C 2,8 C 81 % 999,8 hPa 0,0 l/m 0 min 0 min 0 W/m 3,2 km/h (1 Bft) 95,74 %
08.12.2021 17:10 6,3 C 5,6 C 2,8 C 81 % 999,7 hPa 0,0 l/m 0 min 0 min 0 W/m 3,2 km/h (1 Bft) 95,74 %
08.12.2021 17:12 6,3 C 5,6 C 2,8 C 81 % 999,8 hPa 0,0 l/m 0 min 0 min 0 W/m 3,2 km/h (1 Bft) 97,83 %
08.12.2021 17:14 6,2 C 5,6 C 2,8 C 81 % 999,8 hPa 0,0 l/m 0 min 0 min 0 W/m 3,2 km/h (1 Bft) 97,87 %
08.12.2021 17:16 6,2 C 5,6 C 2,8 C 81 % 999,8 hPa 0,0 l/m 0 min 0 min 0 W/m 9,7 km/h (2 Bft) 97,87 %
08.12.2021 17:18 6,2 C 5,6 C 2,8 C 81 % 999,8 hPa 0,0 l/m 0 min 0 min 0 W/m 9,7 km/h (2 Bft) 97,87 %
08.12.2021 17:20 6,2 C 5,6 C 2,8 C 81 % 999,8 hPa 0,0 l/m 0 min 0 min 0 W/m 6,4 km/h (2 Bft) 97,87 %
08.12.2021 17:22 6,2 C 5,6 C 2,8 C 81 % 999,9 hPa 0,0 l/m 0 min 0 min 0 W/m 3,2 km/h (1 Bft) 97,83 %
08.12.2021 17:24 6,2 C 5,6 C 2,8 C 81 % 999,9 hPa 0,0 l/m 0 min 0 min 0 W/m 12,9 km/h (3 Bft) 97,87 %
08.12.2021 17:26 6,1 C 5,6 C 2,8 C 81 % 999,9 hPa 0,0 l/m 0 min 0 min 0 W/m 19,3 km/h (3 Bft) 100,00 %
08.12.2021 17:28 6,1 C 5,6 C 2,8 C 81 % 999,9 hPa 0,0 l/m 0 min 0 min 0 W/m 9,7 km/h (2 Bft) 100,00 %
08.12.2021 17:30 6,1 C 5,6 C 2,8 C 81 % 999,9 hPa 0,0 l/m 0 min 0 min 0 W/m 9,7 km/h (2 Bft) 100,00 %
08.12.2021 17:32 6,1 C 5,6 C 2,8 C 81 % 999,9 hPa 0,0 l/m 0 min 0 min 0 W/m 9,7 km/h (2 Bft) 95,83 %
08.12.2021 17:34 6,1 C 5,6 C 2,8 C 81 % 999,9 hPa 0,0 l/m 0 min 0 min 0 W/m 6,4 km/h (2 Bft) 100,00 %
08.12.2021 17:36 6,1 C 5,6 C 2,8 C 81 % 999,9 hPa 0,0 l/m 0 min 0 min 0 W/m 9,7 km/h (2 Bft) 97,87 %
08.12.2021 17:38 6,1 C 5,6 C 2,8 C 81 % 999,9 hPa 0,0 l/m 0 min 0 min 0 W/m 16,1 km/h (3 Bft) 97,87 %
08.12.2021 17:40 6,1 C 5,6 C 2,8 C 81 % 1000,0 hPa 0,0 l/m 0 min 0 min 0 W/m 22,5 km/h (4 Bft) 100,00 %
08.12.2021 17:42 6,1 C 5,6 C 2,8 C 81 % 1000,0 hPa 0,0 l/m 0 min 0 min 0 W/m 19,3 km/h (3 Bft) 100,00 %
08.12.2021 17:44 6,1 C 5,6 C 2,8 C 81 % 1000,0 hPa 0,0 l/m 0 min 0 min 0 W/m 12,9 km/h (3 Bft) 100,00 %
08.12.2021 17:46 6,1 C 5,6 C 2,8 C 81 % 1000,0 hPa 0,0 l/m 0 min 0 min 0 W/m 6,4 km/h (2 Bft) 97,87 %
08.12.2021 17:48 6,1 C 5,6 C 2,8 C 81 % 1000,0 hPa 0,0 l/m 0 min 0 min 0 W/m 12,9 km/h (3 Bft) 95,65 %
08.12.2021 17:50 6,1 C 5,6 C 2,8 C 81 % 1000,0 hPa 0,0 l/m 0 min 0 min 0 W/m 6,4 km/h (2 Bft) 95,74 %
08.12.2021 17:52 6,1 C 5,6 C 2,8 C 81 % 1000,0 hPa 0,0 l/m 0 min 0 min 0 W/m 12,9 km/h (3 Bft) 97,87 %
08.12.2021 17:54 6,1 C 5,6 C 2,8 C 81 % 1000,0 hPa 0,0 l/m 0 min 0 min 0 W/m 12,9 km/h (3 Bft) 95,74 %
08.12.2021 17:56 6,1 C 5,6 C 2,8 C 81 % 1000,1 hPa 0,0 l/m 0 min 0 min 0 W/m 22,5 km/h (4 Bft) 97,87 %
08.12.2021 17:58 6,1 C 5,6 C 2,8 C 81 % 1000,1 hPa 0,0 l/m 0 min 0 min 0 W/m 12,9 km/h (3 Bft) 97,87 %
08.12.2021 18:00 6,1 C 5,6 C 2,8 C 81 % 1000,1 hPa 0,0 l/m 0 min 0 min 0 W/m 12,9 km/h (3 Bft) 97,83 %
08.12.2021 18:02 6,1 C 5,6 C 2,8 C 81 % 1000,1 hPa 0,0 l/m 0 min 0 min 0 W/m 19,3 km/h (3 Bft) 97,87 %
08.12.2021 18:04 6,1 C 5,6 C 2,8 C 81 % 1000,1 hPa 0,0 l/m 0 min 0 min 0 W/m 19,3 km/h (3 Bft) 95,74 %
08.12.2021 18:06 6,1 C 5,6 C 2,8 C 80 % 1000,1 hPa 0,0 l/m 0 min 0 min 0 W/m 12,9 km/h (3 Bft) 95,83 %
08.12.2021 18:08 6,1 C 5,6 C 2,8 C 81 % 1000,1 hPa 0,0 l/m 0 min 0 min 0 W/m 12,9 km/h (3 Bft) 93,62 %
08.12.2021 18:10 6,1 C 5,6 C 2,8 C 81 % 1000,1 hPa 0,0 l/m 0 min 0 min 0 W/m 22,5 km/h (4 Bft) 95,65 %
08.12.2021 18:12 6,0 C 5,6 C 2,8 C 80 % 1000,2 hPa 0,0 l/m 0 min 0 min 0 W/m 16,1 km/h (3 Bft) 95,74 %
08.12.2021 18:14 6,0 C 5,6 C 2,8 C 80 % 1000,2 hPa 0,0 l/m 0 min 0 min 0 W/m 12,9 km/h (3 Bft) 93,62 %
08.12.2021 18:16 6,0 C 5,6 C 2,8 C 80 % 1000,2 hPa 0,0 l/m 0 min 0 min 0 W/m 19,3 km/h (3 Bft) 95,74 %
08.12.2021 18:18 6,0 C 5,6 C 2,8 C 80 % 1000,2 hPa 0,0 l/m 0 min 0 min 0 W/m 19,3 km/h (3 Bft) 95,74 %
08.12.2021 18:20 6,0 C 5,6 C 2,8 C 80 % 1000,2 hPa 0,0 l/m 0 min 0 min 0 W/m 19,3 km/h (3 Bft) 93,62 %
08.12.2021 18:22 6,0 C 5,6 C 2,8 C 80 % 1000,2 hPa 0,0 l/m 0 min 0 min 0 W/m 16,1 km/h (3 Bft) 95,65 %
08.12.2021 18:24 6,0 C 5,6 C 2,8 C 80 % 1000,3 hPa 0,0 l/m 0 min 0 min 0 W/m 22,5 km/h (4 Bft) 93,62 %
08.12.2021 18:26 6,0 C 5,6 C 2,8 C 80 % 1000,3 hPa 0,0 l/m 0 min 0 min 0 W/m 22,5 km/h (4 Bft) 97,87 %
08.12.2021 18:28 6,0 C 5,6 C 2,8 C 80 % 1000,3 hPa 0,0 l/m 0 min 0 min 0 W/m 19,3 km/h (3 Bft) 95,74 %
08.12.2021 18:30 6,0 C 5,6 C 2,8 C 80 % 1000,3 hPa 0,0 l/m 0 min 0 min 0 W/m 22,5 km/h (4 Bft) 97,87 %
08.12.2021 18:32 6,0 C 5,6 C 2,8 C 80 % 1000,3 hPa 0,0 l/m 0 min 0 min 0 W/m 16,1 km/h (3 Bft) 97,92 %
08.12.2021 18:34 6,0 C 5,6 C 2,8 C 80 % 1000,3 hPa 0,0 l/m 0 min 0 min 0 W/m 19,3 km/h (3 Bft) 97,83 %
08.12.2021 18:36 6,0 C 5,6 C 2,8 C 80 % 1000,3 hPa 0,0 l/m 0 min 0 min 0 W/m 9,7 km/h (2 Bft) 93,62 %
08.12.2021 18:38 6,0 C 5,6 C 2,8 C 80 % 1000,3 hPa 0,0 l/m 0 min 0 min 0 W/m 9,7 km/h (2 Bft) 97,87 %
08.12.2021 18:40 5,9 C 5,6 C 2,8 C 80 % 1000,3 hPa 0,0 l/m 0 min 0 min 0 W/m 12,9 km/h (3 Bft) 95,74 %
08.12.2021 18:42 5,9 C 5,6 C 2,8 C 80 % 1000,3 hPa 0,0 l/m 0 min 0 min 0 W/m 25,7 km/h (4 Bft) 93,62 %
08.12.2021 18:44 5,9 C 5,6 C 2,8 C 80 % 1000,3 hPa 0,0 l/m 0 min 0 min 0 W/m 16,1 km/h (3 Bft) 97,83 %
08.12.2021 18:46 5,9 C 5,6 C 2,2 C 80 % 1000,2 hPa 0,0 l/m 0 min 0 min 0 W/m 12,9 km/h (3 Bft) 97,87 %
08.12.2021 18:48 5,9 C 5,6 C 2,2 C 80 % 1000,3 hPa 0,0 l/m 0 min 0 min 0 W/m 19,3 km/h (3 Bft) 95,74 %
08.12.2021 18:50 5,9 C 5,6 C 2,2 C 80 % 1000,3 hPa 0,0 l/m 0 min 0 min 0 W/m 12,9 km/h (3 Bft) 97,87 %
08.12.2021 18:52 5,9 C 5,6 C 2,2 C 80 % 1000,3 hPa 0,0 l/m 0 min 0 min 0 W/m 12,9 km/h (3 Bft) 95,74 %
08.12.2021 18:54 5,9 C 5,6 C 2,2 C 80 % 1000,3 hPa 0,0 l/m 0 min 0 min 0 W/m 12,9 km/h (3 Bft) 95,74 %
08.12.2021 18:56 5,8 C 5,6 C 2,2 C 80 % 1000,4 hPa 0,0 l/m 0 min 0 min 0 W/m 9,7 km/h (2 Bft) 93,48 %
08.12.2021 18:58 5,8 C 5,6 C 2,2 C 80 % 1000,4 hPa 0,0 l/m 0 min 0 min 0 W/m 9,7 km/h (2 Bft) 95,74 %
08.12.2021 19:00 5,8 C 5,0 C 2,2 C 80 % 1000,4 hPa 0,0 l/m 0 min 0 min 0 W/m 12,9 km/h (3 Bft) 97,87 %
08.12.2021 19:02 5,8 C 5,0 C 2,2 C 80 % 1000,4 hPa 0,0 l/m 0 min 0 min 0 W/m 6,4 km/h (2 Bft) 97,87 %
08.12.2021 19:04 5,8 C 5,6 C 2,2 C 80 % 1000,4 hPa 0,0 l/m 0 min 0 min 0 W/m 9,7 km/h (2 Bft) 97,87 %
08.12.2021 19:06 5,8 C 5,0 C 2,2 C 80 % 1000,4 hPa 0,0 l/m 0 min 0 min 0 W/m 6,4 km/h (2 Bft) 97,87 %
08.12.2021 19:08 5,8 C 5,0 C 2,2 C 80 % 1000,4 hPa 0,0 l/m 0 min 0 min 0 W/m 6,4 km/h (2 Bft) 95,65 %
08.12.2021 19:10 5,8 C 5,0 C 2,2 C 80 % 1000,5 hPa 0,0 l/m 0 min 0 min 0 W/m 3,2 km/h (1 Bft) 97,87 %
08.12.2021 19:12 5,8 C 5,0 C 2,2 C 81 % 1000,5 hPa 0,0 l/m 0 min 0 min 0 W/m 3,2 km/h (1 Bft) 97,87 %
08.12.2021 19:14 5,8 C 5,0 C 2,2 C 81 % 1000,5 hPa 0,0 l/m 0 min 0 min 0 W/m 3,2 km/h (1 Bft) 97,87 %
08.12.2021 19:16 5,8 C 5,0 C 2,2 C 81 % 1000,5 hPa 0,0 l/m 0 min 0 min 0 W/m 6,4 km/h (2 Bft) 97,87 %
08.12.2021 19:18 5,8 C 5,0 C 2,2 C 81 % 1000,6 hPa 0,0 l/m 0 min 0 min 0 W/m 6,4 km/h (2 Bft) 97,87 %
08.12.2021 19:20 5,8 C 5,0 C 2,2 C 81 % 1000,6 hPa 0,0 l/m 0 min 0 min 0 W/m 9,7 km/h (2 Bft) 97,83 %
08.12.2021 19:22 5,8 C 5,0 C 2,2 C 81 % 1000,6 hPa 0,0 l/m 0 min 0 min 0 W/m 3,2 km/h (1 Bft) 95,74 %
08.12.2021 19:24 5,8 C 5,0 C 2,2 C 81 % 1000,7 hPa 0,0 l/m 0 min 0 min 0 W/m 6,4 km/h (2 Bft) 100,00 %
08.12.2021 19:26 5,8 C 5,0 C 2,2 C 81 % 1000,7 hPa 0,0 l/m 0 min 0 min 0 W/m 3,2 km/h (1 Bft) 100,00 %
08.12.2021 19:28 5,8 C 5,0 C 2,2 C 81 % 1000,7 hPa 0,0 l/m 0 min 0 min 0 W/m 3,2 km/h (1 Bft) 97,87 %
08.12.2021 19:30 5,7 C 5,0 C 2,2 C 81 % 1000,8 hPa 0,0 l/m 0 min 0 min 0 W/m 6,4 km/h (2 Bft) 100,00 %
08.12.2021 19:32 5,7 C 5,0 C 2,2 C 81 % 1000,8 hPa 0,0 l/m 0 min 0 min 0 W/m 3,2 km/h (1 Bft) 100,00 %
08.12.2021 19:34 5,7 C 5,0 C 2,2 C 81 % 1000,8 hPa 0,0 l/m 0 min 0 min 0 W/m 6,4 km/h (2 Bft) 100,00 %
08.12.2021 19:36 5,7 C 5,0 C 2,2 C 81 % 1000,8 hPa 0,0 l/m 0 min 0 min 0 W/m 9,7 km/h (2 Bft) 100,00 %
08.12.2021 19:38 5,7 C 5,0 C 2,2 C 81 % 1000,8 hPa 0,0 l/m 0 min 0 min 0 W/m 6,4 km/h (2 Bft) 100,00 %
08.12.2021 19:40 5,7 C 5,0 C 2,2 C 81 % 1000,9 hPa 0,0 l/m 0 min 0 min 0 W/m 3,2 km/h (1 Bft) 100,00 %
08.12.2021 19:42 5,7 C 5,0 C 2,2 C 82 % 1000,9 hPa 0,0 l/m 0 min 0 min 0 W/m 6,4 km/h (2 Bft) 100,00 %
08.12.2021 19:44 5,6 C 5,0 C 2,2 C 82 % 1000,9 hPa 0,0 l/m 0 min 0 min 0 W/m 6,4 km/h (2 Bft) 100,00 %
08.12.2021 19:46 5,6 C 5,0 C 2,2 C 82 % 1000,9 hPa 0,0 l/m 0 min 0 min 0 W/m 9,7 km/h (2 Bft) 100,00 %
08.12.2021 19:48 5,6 C 5,0 C 2,2 C 82 % 1000,9 hPa 0,0 l/m 0 min 0 min 0 W/m 6,4 km/h (2 Bft) 100,00 %
08.12.2021 19:50 5,6 C 5,0 C 2,2 C 82 % 1000,9 hPa 0,0 l/m 0 min 0 min 0 W/m 3,2 km/h (1 Bft) 100,00 %
08.12.2021 19:52 5,6 C 5,0 C 2,2 C 82 % 1001,0 hPa 0,0 l/m 0 min 0 min 0 W/m 6,4 km/h (2 Bft) 97,62 %
08.12.2021 19:54 5,6 C 5,0 C 2,2 C 82 % 1001,0 hPa 0,0 l/m 0 min 0 min 0 W/m 6,4 km/h (2 Bft) 100,00 %
08.12.2021 19:56 5,6 C 5,0 C 1,7 C 82 % 1000,9 hPa 0,0 l/m 0 min 0 min 0 W/m 6,4 km/h (2 Bft) 100,00 %
08.12.2021 19:58 5,5 C 4,4 C 1,7 C 82 % 1001,0 hPa 0,0 l/m 0 min 0 min 0 W/m 6,4 km/h (2 Bft) 97,73 %
08.12.2021 20:00 5,5 C 4,4 C 1,7 C 82 % 1001,0 hPa 0,0 l/m 0 min 0 min 0 W/m 6,4 km/h (2 Bft) 100,00 %
08.12.2021 20:02 5,5 C 4,4 C 1,7 C 82 % 1001,0 hPa 0,0 l/m 0 min 0 min 0 W/m 6,4 km/h (2 Bft) 100,00 %
08.12.2021 20:04 5,4 C 4,4 C 1,7 C 82 % 1001,0 hPa 0,0 l/m 0 min 0 min 0 W/m 6,4 km/h (2 Bft) 97,92 %
08.12.2021 20:06 5,4 C 4,4 C 1,7 C 83 % 1001,1 hPa 0,0 l/m 0 min 0 min 0 W/m 6,4 km/h (2 Bft) 100,00 %
08.12.2021 20:08 5,4 C 4,4 C 1,7 C 83 % 1001,1 hPa 0,0 l/m 0 min 0 min 0 W/m 3,2 km/h (1 Bft) 100,00 %
08.12.2021 20:10 5,3 C 4,4 C 1,7 C 83 % 1001,2 hPa 0,0 l/m 0 min 0 min 0 W/m 3,2 km/h (1 Bft) 100,00 %
08.12.2021 20:12 5,3 C 4,4 C 1,7 C 83 % 1001,2 hPa 0,0 l/m 0 min 0 min 0 W/m 3,2 km/h (1 Bft) 97,87 %
08.12.2021 20:14 5,3 C 4,4 C 1,7 C 83 % 1001,2 hPa 0,0 l/m 0 min 0 min 0 W/m 6,4 km/h (2 Bft) 100,00 %
08.12.2021 20:16 5,3 C 4,4 C 1,7 C 83 % 1001,2 hPa 0,0 l/m 0 min 0 min 0 W/m 3,2 km/h (1 Bft) 97,87 %
08.12.2021 20:18 5,3 C 4,4 C 1,7 C 83 % 1001,2 hPa 0,0 l/m 0 min 0 min 0 W/m 6,4 km/h (2 Bft) 100,00 %
08.12.2021 20:20 5,2 C 4,4 C 1,7 C 83 % 1001,2 hPa 0,0 l/m 0 min 0 min 0 W/m 3,2 km/h (1 Bft) 97,87 %
08.12.2021 20:22 5,2 C 4,4 C 1,7 C 84 % 1001,2 hPa 0,0 l/m 0 min 0 min 0 W/m 6,4 km/h (2 Bft) 98,00 %
08.12.2021 20:24 5,2 C 4,4 C 1,7 C 84 % 1001,2 hPa 0,0 l/m 0 min 0 min 0 W/m 6,4 km/h (2 Bft) 97,83 %
08.12.2021 20:26 5,2 C 4,4 C 1,7 C 84 % 1001,2 hPa 0,0 l/m 0 min 0 min 0 W/m 6,4 km/h (2 Bft) 95,74 %
08.12.2021 20:28 5,1 C 4,4 C 1,7 C 84 % 1001,2 hPa 0,0 l/m 0 min 0 min 0 W/m 3,2 km/h (1 Bft) 97,87 %
08.12.2021 20:30 5,1 C 4,4 C 1,7 C 84 % 1001,1 hPa 0,0 l/m 0 min 0 min 0 W/m 3,2 km/h (1 Bft) 97,87 %
08.12.2021 20:32 5,1 C 4,4 C 1,7 C 84 % 1001,2 hPa 0,0 l/m 0 min 0 min 0 W/m 9,7 km/h (2 Bft) 97,87 %
08.12.2021 20:34 5,1 C 4,4 C 1,7 C 84 % 1001,2 hPa 0,0 l/m 0 min 0 min 0 W/m 3,2 km/h (1 Bft) 97,83 %
08.12.2021 20:36 5,0 C 3,9 C 1,1 C 84 % 1001,2 hPa 0,0 l/m 0 min 0 min 0 W/m 3,2 km/h (1 Bft) 95,74 %
08.12.2021 20:38 5,0 C 3,9 C 1,1 C 84 % 1001,2 hPa 0,0 l/m 0 min 0 min 0 W/m 6,4 km/h (2 Bft) 97,87 %
08.12.2021 20:40 4,9 C 3,9 C 1,1 C 84 % 1001,2 hPa 0,0 l/m 0 min 0 min 0 W/m 6,4 km/h (2 Bft) 97,87 %
08.12.2021 20:42 4,9 C 3,9 C 1,1 C 84 % 1001,2 hPa 0,0 l/m 0 min 0 min 0 W/m 3,2 km/h (1 Bft) 97,87 %
08.12.2021 20:44 4,9 C 3,9 C 1,1 C 84 % 1001,2 hPa 0,0 l/m 0 min 0 min 0 W/m 3,2 km/h (1 Bft) 95,74 %
08.12.2021 20:46 4,8 C 3,9 C 1,1 C 84 % 1001,3 hPa 0,0 l/m 0 min 0 min 0 W/m 0,0 km/h (0 Bft) 95,65 %
08.12.2021 20:48 4,8 C 3,9 C 0,6 C 84 % 1001,3 hPa 0,0 l/m 0 min 0 min 0 W/m 3,2 km/h (1 Bft) 93,62 %
08.12.2021 20:50 4,8 C 3,9 C 0,6 C 84 % 1001,2 hPa 0,0 l/m 0 min 0 min 0 W/m 3,2 km/h (1 Bft) 97,87 %
08.12.2021 20:52 4,7 C 3,9 C 0,6 C 84 % 1001,3 hPa 0,0 l/m 0 min 0 min 0 W/m 3,2 km/h (1 Bft) 95,74 %
08.12.2021 20:54 4,7 C 3,3 C 0,6 C 84 % 1001,3 hPa 0,0 l/m 0 min 0 min 0 W/m 3,2 km/h (1 Bft) 95,74 %
08.12.2021 20:56 4,6 C 3,3 C 0,6 C 85 % 1001,3 hPa 0,0 l/m 0 min 0 min 0 W/m 3,2 km/h (1 Bft) 95,74 %
08.12.2021 20:58 4,6 C 3,3 C 0,6 C 85 % 1001,2 hPa 0,0 l/m 0 min 0 min 0 W/m 3,2 km/h (1 Bft) 95,65 %
08.12.2021 21:00 4,6 C 3,3 C 0,6 C 85 % 1001,2 hPa 0,0 l/m 0 min 0 min 0 W/m 3,2 km/h (1 Bft) 97,87 %
08.12.2021 21:02 4,5 C 3,3 C 0,6 C 85 % 1001,3 hPa 0,0 l/m 0 min 0 min 0 W/m 0,0 km/h (0 Bft) 95,74 %
08.12.2021 21:04 4,5 C 3,3 C 0,6 C 85 % 1001,3 hPa 0,0 l/m 0 min 0 min 0 W/m 0,0 km/h (0 Bft) 97,87 %
08.12.2021 21:06 4,4 C 3,3 C 0,6 C 85 % 1001,3 hPa 0,0 l/m 0 min 0 min 0 W/m 3,2 km/h (1 Bft) 97,87 %
08.12.2021 21:08 4,4 C 3,3 C 0,0 C 85 % 1001,3 hPa 0,0 l/m 0 min 0 min 0 W/m 0,0 km/h (0 Bft) 97,87 %
08.12.2021 21:10 4,4 C 3,3 C 0,0 C 85 % 1001,3 hPa 0,0 l/m 0 min 0 min 0 W/m 3,2 km/h (1 Bft) 97,83 %
08.12.2021 21:12 4,3 C 3,3 C 0,0 C 85 % 1001,4 hPa 0,0 l/m 0 min 0 min 0 W/m 3,2 km/h (1 Bft) 100,00 %
08.12.2021 21:14 4,3 C 3,3 C 0,0 C 85 % 1001,4 hPa 0,0 l/m 0 min 0 min 0 W/m 3,2 km/h (1 Bft) 100,00 %
08.12.2021 21:16 4,3 C 3,3 C 0,0 C 86 % 1001,4 hPa 0,0 l/m 0 min 0 min 0 W/m 3,2 km/h (1 Bft) 95,74 %
08.12.2021 21:18 4,3 C 3,3 C 0,0 C 86 % 1001,5 hPa 0,0 l/m 0 min 0 min 0 W/m 3,2 km/h (1 Bft) 95,74 %
08.12.2021 21:20 4,2 C 3,3 C 0,6 C 86 % 1001,5 hPa 0,0 l/m 0 min 0 min 0 W/m 3,2 km/h (1 Bft) 95,65 %
08.12.2021 21:22 4,2 C 3,3 C 0,6 C 86 % 1001,5 hPa 0,0 l/m 0 min 0 min 0 W/m 3,2 km/h (1 Bft) 97,87 %
08.12.2021 21:24 4,2 C 2,8 C 0,6 C 86 % 1001,5 hPa 0,0 l/m 0 min 0 min 0 W/m 3,2 km/h (1 Bft) 97,87 %
08.12.2021 21:26 4,1 C 2,8 C 0,6 C 86 % 1001,5 hPa 0,0 l/m 0 min 0 min 0 W/m 3,2 km/h (1 Bft) 97,87 %
08.12.2021 21:28 4,1 C 2,8 C 0,6 C 86 % 1001,5 hPa 0,0 l/m 0 min 0 min 0 W/m 3,2 km/h (1 Bft) 97,87 %
08.12.2021 21:30 4,1 C 2,8 C 0,6 C 86 % 1001,6 hPa 0,0 l/m 0 min 0 min 0 W/m 3,2 km/h (1 Bft) 97,87 %
08.12.2021 21:32 4,0 C 2,8 C 0,6 C 86 % 1001,6 hPa 0,0 l/m 0 min 0 min 0 W/m 6,4 km/h (2 Bft) 97,83 %
08.12.2021 21:34 3,9 C 2,8 C 0,6 C 86 % 1001,6 hPa 0,0 l/m 0 min 0 min 0 W/m 6,4 km/h (2 Bft) 95,74 %
08.12.2021 21:36 3,9 C 2,8 C 0,0 C 86 % 1001,6 hPa 0,0 l/m 0 min 0 min 0 W/m 6,4 km/h (2 Bft) 97,87 %
08.12.2021 21:38 3,9 C 2,8 C 0,0 C 86 % 1001,7 hPa 0,0 l/m 0 min 0 min 0 W/m 6,4 km/h (2 Bft) 98,11 %
08.12.2021 21:40 3,8 C 2,8 C 0,0 C 86 % 1001,8 hPa 0,0 l/m 0 min 0 min 0 W/m 6,4 km/h (2 Bft) 97,37 %
08.12.2021 21:42 3,8 C 2,8 C 0,0 C 87 % 1001,8 hPa 0,0 l/m 0 min 0 min 0 W/m 6,4 km/h (2 Bft) 97,87 %
08.12.2021 21:44 3,8 C 2,8 C 0,0 C 86 % 1001,9 hPa 0,0 l/m 0 min 0 min 0 W/m 6,4 km/h (2 Bft) 97,87 %
08.12.2021 21:46 3,7 C 2,8 C 0,0 C 87 % 1001,8 hPa 0,0 l/m 0 min 0 min 0 W/m 6,4 km/h (2 Bft) 97,87 %
08.12.2021 21:48 3,7 C 2,8 C 0,0 C 87 % 1001,9 hPa 0,0 l/m 0 min 0 min 0 W/m 6,4 km/h (2 Bft) 95,74 %
08.12.2021 21:50 3,7 C 2,8 C 0,0 C 87 % 1001,9 hPa 0,0 l/m 0 min 0 min 0 W/m 6,4 km/h (2 Bft) 97,87 %
08.12.2021 21:52 3,7 C 2,8 C 0,0 C 87 % 1001,9 hPa 0,0 l/m 0 min 0 min 0 W/m 6,4 km/h (2 Bft) 95,65 %
08.12.2021 21:54 3,6 C 2,8 C 0,0 C 87 % 1001,9 hPa 0,0 l/m 0 min 0 min 0 W/m 6,4 km/h (2 Bft) 97,87 %
08.12.2021 21:56 3,6 C 2,8 C 0,0 C 87 % 1001,9 hPa 0,0 l/m 0 min 0 min 0 W/m 6,4 km/h (2 Bft) 97,87 %
08.12.2021 21:58 3,6 C 2,8 C 0,0 C 87 % 1001,9 hPa 0,0 l/m 0 min 0 min 0 W/m 6,4 km/h (2 Bft) 97,87 %
08.12.2021 22:00 3,5 C 2,8 C 0,0 C 87 % 1001,9 hPa 0,0 l/m 0 min 0 min 0 W/m 6,4 km/h (2 Bft) 93,62 %
08.12.2021 22:02 3,5 C 2,8 C 0,0 C 87 % 1002,0 hPa 0,0 l/m 0 min 0 min 0 W/m 6,4 km/h (2 Bft) 97,83 %
08.12.2021 22:04 3,4 C 2,8 C 0,0 C 87 % 1002,1 hPa 0,0 l/m 0 min 0 min 0 W/m 6,4 km/h (2 Bft) 97,87 %
08.12.2021 22:06 3,4 C 2,8 C 0,0 C 87 % 1002,1 hPa 0,0 l/m 0 min 0 min 0 W/m 6,4 km/h (2 Bft) 97,87 %
08.12.2021 22:08 3,4 C 2,8 C 0,0 C 87 % 1002,1 hPa 0,0 l/m 0 min 0 min 0 W/m 12,9 km/h (3 Bft) 97,87 %
08.12.2021 22:10 3,4 C 2,8 C 0,0 C 88 % 1002,1 hPa 0,0 l/m 0 min 0 min 0 W/m 6,4 km/h (2 Bft) 95,92 %
08.12.2021 22:12 3,3 C 2,8 C 0,0 C 88 % 1002,2 hPa 0,0 l/m 0 min 0 min 0 W/m 6,4 km/h (2 Bft) 100,00 %
08.12.2021 22:14 3,3 C 2,8 C 0,0 C 88 % 1002,2 hPa 0,0 l/m 0 min 0 min 0 W/m 12,9 km/h (3 Bft) 100,00 %
08.12.2021 22:16 3,3 C 2,8 C 0,0 C 88 % 1002,2 hPa 0,0 l/m 0 min 0 min 0 W/m 6,4 km/h (2 Bft) 97,87 %
08.12.2021 22:18 3,3 C 2,2 C 0,0 C 88 % 1002,2 hPa 0,0 l/m 0 min 0 min 0 W/m 12,9 km/h (3 Bft) 100,00 %
08.12.2021 22:20 3,2 C 2,2 C 0,0 C 88 % 1002,2 hPa 0,0 l/m 0 min 0 min 0 W/m 12,9 km/h (3 Bft) 95,65 %
08.12.2021 22:22 3,2 C 2,2 C 0,0 C 88 % 1002,2 hPa 0,0 l/m 0 min 0 min 0 W/m 9,7 km/h (2 Bft) 100,00 %
08.12.2021 22:24 3,2 C 2,2 C 0,0 C 88 % 1002,2 hPa 0,0 l/m 0 min 0 min 0 W/m 6,4 km/h (2 Bft) 100,00 %
08.12.2021 22:26 3,2 C 2,2 C 0,0 C 88 % 1002,2 hPa 0,0 l/m 0 min 0 min 0 W/m 6,4 km/h (2 Bft) 95,74 %
08.12.2021 22:28 3,1 C 2,2 C 0,0 C 88 % 1002,2 hPa 0,0 l/m 0 min 0 min 0 W/m 6,4 km/h (2 Bft) 97,87 %
08.12.2021 22:30 3,1 C 2,2 C 0,0 C 88 % 1002,3 hPa 0,0 l/m 0 min 0 min 0 W/m 3,2 km/h (1 Bft) 95,74 %
08.12.2021 22:32 3,1 C 2,2 C 0,0 C 88 % 1002,2 hPa 0,0 l/m 0 min 0 min 0 W/m 6,4 km/h (2 Bft) 97,83 %
08.12.2021 22:34 3,1 C 2,2 C 0,0 C 88 % 1002,2 hPa 0,0 l/m 0 min 0 min 0 W/m 6,4 km/h (2 Bft) 95,74 %
08.12.2021 22:36 3,1 C 2,8 C 0,0 C 88 % 1002,3 hPa 0,0 l/m 0 min 0 min 0 W/m 9,7 km/h (2 Bft) 97,87 %
08.12.2021 22:38 3,1 C 2,8 C 0,0 C 88 % 1002,3 hPa 0,0 l/m 0 min 0 min 0 W/m 6,4 km/h (2 Bft) 95,74 %
08.12.2021 22:40 3,1 C 2,8 C 0,0 C 89 % 1002,4 hPa 0,0 l/m 0 min 0 min 0 W/m 6,4 km/h (2 Bft) 95,74 %
08.12.2021 22:42 3,1 C 2,8 C 0,0 C 89 % 1002,4 hPa 0,0 l/m 0 min 0 min 0 W/m 6,4 km/h (2 Bft) 95,74 %
08.12.2021 22:44 3,1 C 2,8 C 0,0 C 89 % 1002,4 hPa 0,0 l/m 0 min 0 min 0 W/m 6,4 km/h (2 Bft) 95,65 %
08.12.2021 22:46 3,0 C 2,8 C 0,0 C 89 % 1002,3 hPa 0,0 l/m 0 min 0 min 0 W/m 6,4 km/h (2 Bft) 93,62 %
08.12.2021 22:48 3,0 C 2,8 C 0,0 C 89 % 1002,3 hPa 0,0 l/m 0 min 0 min 0 W/m 6,4 km/h (2 Bft) 95,74 %
08.12.2021 22:50 3,0 C 2,8 C 0,0 C 89 % 1002,4 hPa 0,0 l/m 0 min 0 min 0 W/m 6,4 km/h (2 Bft) 93,62 %
08.12.2021 22:52 3,0 C 2,2 C 0,0 C 89 % 1002,4 hPa 0,0 l/m 0 min 0 min 0 W/m 3,2 km/h (1 Bft) 95,74 %
08.12.2021 22:54 3,0 C 2,2 C 0,0 C 89 % 1002,5 hPa 0,0 l/m 0 min 0 min 0 W/m 3,2 km/h (1 Bft) 93,62 %
08.12.2021 22:56 3,0 C 2,2 C 0,0 C 89 % 1002,5 hPa 0,0 l/m 0 min 0 min 0 W/m 3,2 km/h (1 Bft) 95,65 %
08.12.2021 22:58 3,0 C 2,2 C 0,0 C 89 % 1002,5 hPa 0,0 l/m 0 min 0 min 0 W/m 6,4 km/h (2 Bft) 98,00 %
08.12.2021 23:00 3,0 C 2,2 C 0,0 C 89 % 1002,5 hPa 0,0 l/m 0 min 0 min 0 W/m 3,2 km/h (1 Bft) 97,87 %
08.12.2021 23:02 2,9 C 2,2 C 0,0 C 89 % 1002,5 hPa 0,0 l/m 0 min 0 min 0 W/m 6,4 km/h (2 Bft) 97,87 %
08.12.2021 23:04 2,9 C 2,2 C 0,0 C 89 % 1002,6 hPa 0,0 l/m 0 min 0 min 0 W/m 6,4 km/h (2 Bft) 97,87 %
08.12.2021 23:06 2,9 C 2,2 C 0,0 C 89 % 1002,5 hPa 0,0 l/m 0 min 0 min 0 W/m 6,4 km/h (2 Bft) 97,87 %
08.12.2021 23:08 2,9 C 2,2 C 0,0 C 89 % 1002,6 hPa 0,0 l/m 0 min 0 min 0 W/m 6,4 km/h (2 Bft) 98,00 %
08.12.2021 23:10 2,9 C 2,2 C 0,0 C 89 % 1002,6 hPa 0,0 l/m 0 min 0 min 0 W/m 6,4 km/h (2 Bft) 97,83 %
08.12.2021 23:12 2,9 C 2,2 C 0,0 C 89 % 1002,6 hPa 0,0 l/m 0 min 0 min 0 W/m 3,2 km/h (1 Bft) 97,87 %
08.12.2021 23:14 2,9 C 2,2 C 0,0 C 89 % 1002,7 hPa 0,0 l/m 0 min 0 min 0 W/m 3,2 km/h (1 Bft) 97,87 %
08.12.2021 23:16 2,9 C 2,2 C 0,0 C 89 % 1002,7 hPa 0,0 l/m 0 min 0 min 0 W/m 6,4 km/h (2 Bft) 100,00 %
08.12.2021 23:18 2,8 C 2,2 C 0,0 C 89 % 1002,7 hPa 0,0 l/m 0 min 0 min 0 W/m 6,4 km/h (2 Bft) 100,00 %
08.12.2021 23:20 2,8 C 2,2 C 0,0 C 89 % 1002,7 hPa 0,0 l/m 0 min 0 min 0 W/m 6,4 km/h (2 Bft) 100,00 %
08.12.2021 23:22 2,8 C 2,2 C 0,0 C 89 % 1002,7 hPa 0,0 l/m 0 min 0 min 0 W/m 6,4 km/h (2 Bft) 97,83 %
08.12.2021 23:24 2,8 C 2,2 C 0,0 C 89 % 1002,7 hPa 0,0 l/m 0 min 0 min 0 W/m 6,4 km/h (2 Bft) 97,87 %
08.12.2021 23:26 2,8 C 2,2 C 0,0 C 89 % 1002,7 hPa 0,0 l/m 0 min 0 min 0 W/m 12,9 km/h (3 Bft) 97,87 %
08.12.2021 23:28 2,8 C 2,2 C 0,0 C 89 % 1002,7 hPa 0,0 l/m 0 min 0 min 0 W/m 12,9 km/h (3 Bft) 100,00 %
08.12.2021 23:30 2,8 C 2,2 C 0,0 C 89 % 1002,7 hPa 0,0 l/m 0 min 0 min 0 W/m 6,4 km/h (2 Bft) 100,00 %
08.12.2021 23:32 2,8 C 2,2 C 0,0 C 89 % 1002,7 hPa 0,0 l/m 0 min 0 min 0 W/m 6,4 km/h (2 Bft) 100,00 %
08.12.2021 23:34 2,7 C 2,2 C 0,0 C 89 % 1002,8 hPa 0,0 l/m 0 min 0 min 0 W/m 12,9 km/h (3 Bft) 100,00 %
08.12.2021 23:36 2,7 C 2,2 C 0,0 C 89 % 1002,8 hPa 0,0 l/m 0 min 0 min 0 W/m 6,4 km/h (2 Bft) 100,00 %
08.12.2021 23:38 2,7 C 2,2 C 0,0 C 90 % 1002,7 hPa 0,0 l/m 0 min 0 min 0 W/m 6,4 km/h (2 Bft) 97,87 %
08.12.2021 23:40 2,7 C 2,2 C 0,0 C 89 % 1002,8 hPa 0,0 l/m 0 min 0 min 0 W/m 12,9 km/h (3 Bft) 100,00 %
08.12.2021 23:42 2,7 C 2,2 C 0,0 C 89 % 1002,7 hPa 0,0 l/m 0 min 0 min 0 W/m 6,4 km/h (2 Bft) 100,00 %
08.12.2021 23:44 2,7 C 2,2 C 0,0 C 89 % 1002,7 hPa 0,0 l/m 0 min 0 min 0 W/m 6,4 km/h (2 Bft) 100,00 %
08.12.2021 23:46 2,7 C 2,2 C 0,0 C 90 % 1002,8 hPa 0,0 l/m 0 min 0 min 0 W/m 6,4 km/h (2 Bft) 100,00 %
08.12.2021 23:48 2,7 C 2,2 C 0,0 C 90 % 1002,8 hPa 0,0 l/m 0 min 0 min 0 W/m 6,4 km/h (2 Bft) 100,00 %
08.12.2021 23:50 2,6 C 2,2 C -0,6 C 90 % 1002,8 hPa 0,0 l/m 0 min 0 min 0 W/m 6,4 km/h (2 Bft) 100,00 %
08.12.2021 23:52 2,6 C 2,2 C -0,6 C 90 % 1002,8 hPa 0,0 l/m 0 min 0 min 0 W/m 6,4 km/h (2 Bft) 100,00 %
08.12.2021 23:54 2,6 C 2,2 C -0,6 C 90 % 1002,8 hPa 0,0 l/m 0 min 0 min 0 W/m 6,4 km/h (2 Bft) 100,00 %
08.12.2021 23:56 2,6 C 2,2 C -0,6 C 90 % 1002,9 hPa 0,0 l/m 0 min 0 min 0 W/m 3,2 km/h (1 Bft) 100,00 %
08.12.2021 23:58 2,6 C 2,2 C -0,6 C 90 % 1002,9 hPa 0,0 l/m 0 min 0 min 0 W/m 9,7 km/h (2 Bft) 100,00 %
_ Min-Zeit 23:50 22:18 23:50 13:42 01:34 - - - - 20:46 16:54
Minimum _ 2,6 C 2,2 C -0,6 C 78 % 994,1 hPa - - - - 0,0 km/h (0 Bft) 42,42 %
_ Max-Zeit 13:42 13:32 12:44 05:28 23:56 00:46 13:30 00:04 13:32 00:54 00:00
Maximum _ 7,2 C 10,6 C 3,9 C 93 % 1002,9 hPa 0,2 l/m 2 min 2 min 305 W/m 48,3 km/h
SO (6 Bft)
100,00 %
Durchschnitt _ 5,2 C 4,8 C 2,1 C 86 % 998,0 hPa #0,4 l/m #52 min. #1:24 h 73 W/m 14,0 km/h (3 Bft) 97,22 %
© 2021 W. Hausmann